[{"header": {"dx": 0.06612293990616946, "dy": 0.0552356325346848, "nx": 98, "ny": 59, "la1": 35.046912555036876, "la2": 31.78801023549047, "lo1": -121.43107172385933, "lo2": -114.95102361305473, "refTime": "2026041000", "parameterCategory": 1, "parameterNumber": 2}, "data": [14.75, 14.75, 14.64, 14.64, 14.64, 14.64, 14.64, 14.64, 14.64, 14.6, 13.86, 11.62, 12.52, 11.06, 10.2, 10.73, 10.73, 10.73, 10.73, 10.28, 9.39, 9.26, 8.89, 8.9, 8.9, 9.39, 9.39, 9.39, 8.94, 8.9, 7.85, 4.43, 0.0, 0.0, 2.12, 2.8, 3.68, 3.68, 4.75, 6.28, 7.37, 8.54, 10.4, 11.92, 13.39, 14.7, 16.54, 18.21, 18.08, 16.04, 12.96, 12.03, 11.91, 12.2, 12.39, 12.21, 12.33, 12.15, 12.15, 12.15, 12.15, 12.15, 11.75, 11.75, 11.75, 12.45, 12.87, 13.15, 13.15, 12.96, 12.53, 12.04, 11.61, 11.61, 11.61, 11.36, 11.51, 11.52, 12.93, 12.52, 10.28, 9.83, 9.39, 8.9, 8.9, 8.46, 8.45, 8.45, 8.49, 8.94, 10.28, 11.18, 11.18, 12.07, 12.42, 11.5, 7.59, 5.45, 14.3, 14.75, 14.75, 14.64, 14.64, 14.64, 15.08, 15.08, 14.64, 14.6, 13.41, 12.96, 11.62, 10.62, 11.46, 11.02, 10.2, 11.62, 10.28, 9.83, 10.28, 10.28, 9.26, 8.82, 8.0, 8.45, 8.94, 8.94, 8.94, 8.9, 7.63, 4.43, 0.0, 1.98, 3.47, 4.29, 4.14, 4.14, 4.37, 5.59, 6.95, 9.08, 10.79, 11.9, 14.18, 16.28, 18.48, 18.11, 16.92, 13.41, 11.44, 10.92, 10.4, 10.4, 11.04, 11.26, 11.83, 11.83, 11.83, 12.15, 12.15, 11.75, 11.75, 12.04, 12.3, 12.3, 12.96, 12.96, 12.96, 12.53, 12.21, 11.79, 11.37, 11.37, 11.37, 11.18, 11.36, 11.52, 12.93, 12.52, 10.28, 9.83, 9.39, 8.9, 8.9, 8.46, 8.45, 8.45, 8.49, 8.94, 10.28, 11.18, 11.18, 12.07, 12.42, 11.5, 7.59, 5.45, 14.3, 14.75, 14.75, 14.75, 14.64, 14.64, 15.08, 15.08, 15.08, 14.16, 12.35, 10.28, 11.62, 11.51, 10.41, 10.41, 10.84, 10.91, 11.09, 11.18, 9.83, 10.73, 11.18, 10.14, 8.85, 8.44, 8.9, 8.94, 8.94, 8.77, 7.63, 5.06, 1.4, 3.4, 4.74, 6.01, 4.83, 4.6, 4.2, 5.7, 7.56, 9.8, 12.11, 14.11, 16.87, 17.99, 19.08, 18.33, 13.09, 9.6, 9.43, 9.67, 10.28, 10.29, 10.73, 11.64, 11.83, 12.15, 12.15, 12.15, 12.15, 12.04, 12.04, 12.3, 12.53, 12.53, 12.71, 12.71, 12.46, 11.77, 11.41, 11.41, 11.2, 11.09, 11.37, 11.18, 11.36, 13.28, 13.82, 13.41, 10.28, 9.35, 8.9, 8.45, 7.92, 7.92, 7.89, 8.44, 8.89, 9.83, 12.52, 12.96, 12.39, 11.61, 10.04, 7.59, 6.11, 6.11, 14.3, 14.3, 14.75, 14.75, 14.64, 14.64, 15.08, 14.75, 14.18, 13.72, 11.91, 10.58, 11.91, 11.06, 10.84, 10.84, 10.88, 11.3, 11.78, 10.91, 11.11, 10.28, 11.18, 11.62, 10.66, 9.74, 8.45, 8.94, 8.9, 8.33, 7.76, 5.72, 4.0, 4.96, 6.32, 6.64, 5.46, 6.2, 4.58, 6.65, 8.53, 12.36, 14.47, 14.66, 14.78, 16.05, 15.08, 9.48, 8.12, 8.65, 9.21, 10.29, 10.29, 10.66, 10.87, 11.6, 11.75, 12.15, 12.15, 12.15, 12.04, 12.3, 12.09, 12.09, 12.27, 12.27, 12.68, 11.79, 10.87, 10.55, 11.39, 12.81, 13.56, 11.87, 11.23, 11.51, 11.15, 13.37, 15.65, 13.41, 9.36, 9.35, 8.33, 7.85, 7.85, 8.73, 8.67, 8.43, 8.94, 12.39, 12.79, 11.6, 10.04, 7.9, 6.11, 5.9, 6.11, 5.82, 14.3, 14.3, 14.75, 14.75, 14.75, 14.64, 15.08, 14.75, 14.18, 13.32, 11.45, 10.18, 11.46, 11.02, 10.41, 10.88, 11.03, 11.45, 11.03, 11.45, 11.87, 10.58, 10.73, 11.62, 10.73, 11.18, 9.7, 9.39, 9.39, 8.43, 8.6, 7.56, 5.77, 7.44, 7.9, 7.9, 6.2, 5.8, 6.16, 7.22, 11.17, 11.35, 11.54, 11.64, 12.83, 11.09, 8.75, 7.9, 8.22, 8.93, 10.01, 10.66, 10.66, 10.66, 11.2, 11.6, 11.75, 12.15, 12.15, 12.56, 12.37, 12.58, 12.09, 11.84, 12.27, 12.24, 11.2, 9.69, 9.48, 10.22, 11.69, 13.58, 15.07, 14.61, 12.37, 10.26, 10.28, 11.62, 14.3, 13.86, 8.91, 8.77, 7.85, 6.94, 7.31, 8.49, 8.82, 8.48, 9.08, 10.99, 9.48, 8.53, 6.24, 4.74, 5.63, 5.63, 6.32, 6.87, 14.3, 14.3, 14.3, 14.75, 14.75, 14.64, 15.08, 14.31, 14.18, 13.32, 11.45, 9.75, 10.96, 10.18, 10.75, 10.46, 11.03, 11.3, 11.03, 11.44, 11.2, 11.3, 13.23, 12.96, 12.07, 12.07, 11.62, 10.96, 10.52, 10.52, 9.29, 9.39, 8.54, 9.16, 10.73, 10.18, 9.17, 8.31, 3.42, 5.94, 7.2, 10.12, 10.73, 12.52, 10.41, 8.85, 8.07, 8.93, 8.93, 9.66, 9.67, 10.04, 10.63, 11.02, 11.6, 11.75, 11.75, 12.04, 12.56, 12.8, 12.58, 12.27, 11.84, 11.96, 11.96, 10.56, 7.93, 7.63, 9.06, 10.58, 12.03, 12.79, 14.53, 15.9, 15.46, 13.81, 9.39, 8.9, 8.45, 12.07, 8.0, 7.54, 7.08, 7.6, 7.81, 6.01, 5.86, 6.94, 9.16, 8.87, 7.28, 6.63, 4.2, 4.5, 6.11, 6.64, 6.87, 7.9, 14.3, 14.3, 14.3, 14.75, 14.75, 14.64, 14.64, 14.31, 13.75, 13.32, 11.45, 9.33, 10.58, 10.32, 11.45, 10.46, 11.45, 11.87, 11.44, 11.2, 11.6, 13.07, 13.99, 15.53, 15.2, 14.75, 15.2, 14.03, 12.04, 9.32, 9.6, 9.11, 9.83, 9.33, 10.79, 13.15, 14.19, 13.15, 0.0, 0.0, 4.52, 9.17, 11.99, 6.9, 8.18, 8.1, 8.42, 9.26, 8.93, 10.41, 10.04, 10.04, 11.02, 11.2, 11.2, 12.04, 12.04, 12.3, 12.58, 12.74, 12.27, 11.96, 11.51, 11.45, 9.02, 6.94, 7.25, 7.9, 9.56, 11.03, 12.39, 12.87, 13.23, 14.9, 16.37, 15.43, 13.8, 8.45, 8.9, 9.77, 7.6, 8.49, 7.81, 2.39, -0.0, 1.91, 5.6, 7.69, 10.12, 7.19, 6.21, 5.99, 3.35, 4.71, 6.32, 6.87, 7.56, 8.24, 13.86, 14.3, 14.3, 14.3, 14.75, 14.64, 14.64, 14.31, 13.88, 12.33, 10.0, 8.43, 9.55, 10.0, 11.2, 9.48, 10.55, 12.04, 12.04, 12.45, 12.45, 12.6, 12.94, 15.09, 15.12, 15.2, 15.65, 15.87, 13.99, 12.72, 11.45, 11.91, 12.52, 12.52, 10.91, 11.44, 12.04, 10.84, 11.62, 8.22, 12.96, 6.2, 5.98, 6.69, 7.98, 9.31, 8.22, 8.93, 9.27, 10.23, 10.04, 10.63, 11.2, 11.2, 11.5, 11.5, 11.37, 11.66, 11.84, 11.84, 11.51, 11.06, 10.84, 8.22, 5.72, 7.13, 8.05, 9.17, 9.66, 10.66, 11.92, 12.96, 13.62, 14.18, 15.16, 15.16, 12.92, 12.02, 12.45, 14.22, 15.53, 11.21, 2.39, -0.0, -0.0, 2.54, 7.51, 10.73, 9.17, 7.24, 4.15, 2.26, 2.82, 5.31, 6.63, 7.07, 7.56, 6.3, 13.86, 14.3, 14.3, 14.3, 14.75, 14.64, 14.64, 14.31, 13.39, 11.92, 9.67, 8.22, 9.17, 10.79, 10.87, 10.19, 9.84, 11.16, 11.72, 11.99, 11.99, 12.33, 12.66, 13.7, 12.51, 11.09, 9.83, 13.86, 15.43, 14.3, 13.86, 15.2, 14.99, 11.88, 8.85, 9.17, 9.7, 10.27, 9.75, 9.2, 9.17, 8.18, 7.32, 6.21, 7.44, 7.9, 9.5, 9.76, 10.01, 10.29, 11.5, 10.63, 10.63, 10.63, 10.96, 10.85, 11.11, 11.11, 11.33, 11.33, 11.05, 10.56, 7.81, 4.17, 5.55, 7.93, 8.95, 9.56, 9.66, 10.63, 11.79, 13.21, 14.28, 14.73, 14.3, 13.41, 11.62, 11.62, 13.86, 16.09, 16.54, 13.28, 3.11, -0.0, -0.0, 5.2, 8.53, 9.67, 5.95, 2.39, -0.0, -0.0, 1.63, 4.83, 6.01, 6.63, 6.14, 5.21, 13.86, 13.86, 14.3, 14.3, 14.75, 14.64, 14.64, 14.31, 13.39, 12.14, 10.87, 9.84, 9.08, 10.59, 11.28, 10.91, 10.86, 11.2, 11.52, 10.47, 10.12, 10.12, 11.53, 12.79, 13.15, 11.18, 9.29, 10.73, 14.75, 14.3, 14.75, 16.54, 14.84, 8.66, 8.53, 9.7, 10.41, 8.99, 9.67, 9.84, 9.17, 9.17, 8.22, 7.27, 7.74, 8.82, 9.52, 10.18, 11.04, 11.04, 10.66, 10.28, 9.67, 9.67, 10.04, 10.2, 10.2, 10.2, 10.58, 11.21, 10.96, 7.81, 4.32, 4.87, 6.4, 7.69, 8.95, 9.17, 9.21, 10.04, 12.04, 13.31, 14.28, 14.75, 14.28, 12.71, 11.33, 11.28, 11.91, 14.51, 17.43, 15.36, 7.44, 2.4, 2.54, 6.64, 8.55, 8.55, 3.25, -0.0, -1.63, -1.63, -0.0, 1.84, 5.1, 4.83, 4.6, 4.96, 13.86, 13.86, 14.3, 14.75, 14.75, 14.64, 14.64, 14.31, 13.39, 11.99, 11.6, 11.75, 11.88, 12.17, 13.07, 13.28, 14.3, 14.84, 14.99, 16.66, 16.7, 16.54, 16.12, 14.31, 14.6, 12.83, 10.28, 10.28, 12.96, 13.86, 12.96, 12.71, 10.24, 7.9, 9.7, 11.95, 11.53, 10.4, 9.42, 10.65, 11.34, 10.73, 9.08, 8.59, 8.93, 8.23, 8.93, 9.58, 9.81, 9.65, 9.3, 9.27, 8.93, 8.22, 7.59, 7.48, 7.36, 8.53, 10.35, 11.03, 9.09, 4.13, 4.13, 5.62, 6.6, 8.18, 8.46, 8.05, 8.01, 9.34, 11.36, 12.53, 14.21, 14.3, 13.65, 12.98, 11.6, 10.6, 11.2, 12.72, 15.2, 11.38, 8.43, 7.78, 5.36, 5.06, 6.01, 6.79, 3.11, -3.8, -4.43, -4.29, -3.0, -0.0, 3.6, 3.82, 5.06, 4.37, 13.86, 13.86, 14.3, 14.75, 14.64, 14.64, 14.31, 14.4, 13.57, 12.72, 12.25, 12.11, 12.65, 12.79, 12.33, 12.14, 12.42, 14.75, 16.07, 16.96, 16.51, 16.07, 15.62, 16.09, 13.41, 12.96, 12.52, 8.02, 11.13, 10.28, 10.65, 11.21, 10.4, 8.6, 10.66, 10.28, 10.14, 10.6, 9.69, 10.73, 11.39, 11.03, 10.04, 9.7, 8.03, 7.64, 8.93, 8.93, 9.32, 8.73, 7.59, 8.22, 7.36, 6.45, 5.0, 4.87, 6.21, 7.73, 10.73, 8.93, 3.49, 3.14, 4.91, 5.62, 6.6, 7.11, 7.32, 7.45, 7.13, 8.3, 9.57, 11.04, 12.62, 12.96, 12.21, 11.58, 9.69, 8.85, 8.85, 11.99, 11.09, 6.65, 7.28, 9.22, 6.87, 7.21, 6.87, 7.33, -0.0, -6.32, -6.32, -5.37, -5.06, -0.0, -0.0, 3.25, 5.46, 4.22, 13.86, 13.86, 14.3, 14.75, 14.64, 14.64, 14.4, 13.96, 13.57, 13.15, 12.66, 12.79, 13.19, 13.59, 14.38, 14.75, 14.22, 13.41, 12.9, 13.28, 13.35, 13.29, 13.3, 13.36, 13.36, 13.36, 13.36, 13.3, 11.95, 9.82, 10.73, 11.49, 11.33, 10.84, 10.25, 9.64, 9.66, 9.81, 9.81, 10.43, 11.02, 11.2, 10.43, 8.99, 9.13, 8.0, 8.43, 9.2, 8.18, 7.56, 6.32, 5.94, 5.76, 4.07, 4.08, 3.82, 6.08, 9.48, 10.2, 6.11, 2.93, 3.25, 4.87, 5.67, 5.55, 5.73, 5.99, 6.47, 6.4, 7.93, 10.12, 10.9, 9.03, 11.18, 8.53, 5.6, 3.14, 3.32, 7.51, 10.04, 4.8, 6.97, 9.42, 10.73, 8.85, 9.62, 8.93, 8.43, -0.0, -7.28, -7.81, -6.64, -6.32, -5.06, -0.0, -0.0, -0.0, 5.06, 13.86, 13.86, 13.86, 14.3, 14.64, 14.19, 13.96, 13.96, 13.57, 13.57, 13.28, 13.28, 13.43, 14.03, 15.02, 15.27, 15.85, 15.12, 14.75, 14.29, 14.29, 14.25, 14.69, 15.51, 15.51, 15.51, 14.19, 14.11, 13.67, 12.91, 11.18, 11.62, 12.07, 10.73, 10.14, 9.42, 8.72, 9.2, 9.36, 9.77, 10.85, 10.68, 10.91, 10.84, 9.33, 9.13, 7.53, 8.8, 8.93, 7.59, 6.14, 7.59, 8.05, 5.15, 4.65, 5.2, 6.42, 10.24, 12.6, 7.4, 2.71, 3.53, 4.98, 5.8, 4.75, 5.06, 5.4, 5.4, 6.67, 8.01, 10.51, 10.24, 6.98, -9.83, -9.33, -8.94, -5.95, 10.28, 6.95, 5.21, 6.04, 7.27, 10.25, 13.02, 10.61, 11.99, 12.14, 10.18, -0.0, -7.5, -9.29, -7.6, -7.15, -7.15, -8.94, -9.39, 8.05, 7.6, 13.86, 13.86, 13.86, 14.19, 14.19, 14.19, 13.96, 13.96, 13.57, 13.7, 13.7, 13.7, 13.86, 14.42, 15.38, 15.9, 16.05, 16.29, 16.0, 15.65, 15.2, 15.18, 15.58, 16.03, 15.96, 16.41, 15.87, 15.43, 15.01, 14.64, 13.84, 12.5, 12.01, 10.73, 10.2, 9.46, 9.89, 8.72, 10.46, 9.92, 10.6, 11.57, 10.66, 10.65, 9.26, 8.82, 8.82, 7.6, 6.32, 5.9, 8.23, 7.27, 6.95, 3.8, 5.1, 4.83, 7.6, 9.68, 12.14, 10.01, 4.62, 5.2, 5.92, 6.5, 6.5, 6.24, 6.5, 6.5, 6.87, 8.82, 9.67, 9.65, 11.03, -10.58, -10.28, -5.46, 1.69, 5.45, 6.42, 7.48, 8.31, 9.05, 9.2, 10.18, 9.97, 11.87, 13.09, 11.06, 6.64, -8.49, -9.83, -8.38, -7.15, -7.6, -8.05, -0.0, -0.0, -0.0, 13.86, 13.86, 13.86, 14.19, 14.19, 14.22, 13.96, 13.96, 13.57, 13.7, 14.13, 13.86, 13.86, 14.42, 14.95, 15.38, 16.22, 16.7, 16.88, 16.52, 16.09, 16.09, 16.08, 16.48, 16.4, 16.31, 16.31, 15.89, 15.53, 15.09, 15.15, 15.2, 13.84, 11.57, 10.28, 8.9, 9.42, 9.13, 10.91, 10.66, 10.28, 10.73, 10.73, 9.76, 9.29, 8.38, 7.89, 5.69, 4.83, 5.1, 6.01, 6.01, 6.79, 6.01, 6.44, 6.44, 8.33, 9.83, 11.03, 9.3, 6.31, 6.24, 7.27, 7.56, 7.81, 7.81, 6.45, 7.56, 7.9, 9.32, 9.24, 9.81, 11.87, -5.2, -2.71, 3.53, 6.7, 8.66, 9.48, 10.28, 10.29, 10.63, 10.43, 9.97, 8.8, 8.49, 10.28, 9.83, 8.49, -8.05, -9.39, -7.15, -5.37, -2.54, -0.0, -0.0, 2.06, 2.06, 13.86, 13.86, 14.3, 13.75, 13.75, 14.22, 13.96, 14.4, 14.03, 13.7, 14.13, 14.23, 14.66, 14.75, 15.18, 15.25, 15.3, 16.22, 16.87, 16.96, 16.54, 16.09, 16.09, 16.03, 15.96, 15.87, 15.98, 16.04, 16.04, 16.49, 16.97, 16.97, 16.09, 14.25, 8.9, 8.94, 9.34, 10.65, 10.2, 10.28, 10.73, 8.94, 9.83, 8.44, 9.29, 8.3, 6.32, 4.37, 5.1, 6.32, 7.15, 7.51, 7.33, 7.33, 8.4, 8.4, 9.46, 9.97, 10.0, 9.3, 7.9, 7.27, 8.18, 8.63, 8.63, 7.63, 8.0, 7.6, 8.4, 9.89, 10.73, 11.14, 12.75, 11.53, 8.22, 8.3, 10.43, 11.82, 11.87, 12.27, 11.88, 12.15, 11.37, 9.89, 9.24, 8.45, 8.49, 8.49, -7.6, -7.07, -8.4, -4.83, -2.82, -1.4, -0.0, -0.0, 1.54, 1.54, 13.86, 13.86, 14.3, 14.19, 13.77, 13.77, 13.96, 13.96, 14.47, 14.13, 14.13, 14.66, 14.66, 14.75, 14.75, 14.81, 15.3, 15.78, 16.39, 16.51, 16.09, 16.07, 15.65, 15.18, 15.49, 15.95, 16.52, 16.54, 16.54, 17.43, 17.43, 17.88, 17.88, 16.07, 12.39, 8.33, 8.77, 10.2, 10.65, 10.2, 9.83, 9.39, 8.49, 8.38, 8.48, 7.33, 5.59, 5.59, 7.33, 7.33, 7.33, 7.68, 7.68, 8.18, 8.8, 9.04, 9.04, 9.2, 8.73, 8.49, 8.49, 8.37, 9.04, 9.03, 9.11, 8.33, 8.0, 8.49, 9.83, 11.18, 12.45, 12.07, 12.94, 14.15, 14.22, 13.26, 12.89, 13.87, 14.39, 13.75, 13.11, 12.98, 12.37, 9.58, 9.21, 8.49, 8.85, 0.0, -8.49, -8.23, -5.9, -5.1, -3.91, -3.32, -0.0, -0.0, -0.0, -0.0, 13.86, 13.86, 13.86, 14.22, 13.77, 13.77, 13.96, 13.96, 14.47, 14.13, 14.13, 14.66, 15.09, 15.18, 14.75, 16.66, 14.37, 15.46, 15.61, 15.2, 15.62, 15.9, 15.41, 16.49, 15.2, 16.54, 13.83, 16.95, 17.4, 16.07, 17.41, 17.88, 17.88, 17.43, 15.61, 12.27, 8.99, 8.67, 9.54, 11.11, 10.28, 10.28, 10.2, 9.46, 8.18, 7.56, 7.56, 7.81, 7.81, 8.4, 8.18, 8.18, 8.18, 8.18, 8.54, 8.93, 8.54, 8.73, 9.09, 9.48, 9.6, 9.63, 9.54, 8.33, 8.77, 8.45, 8.49, 8.94, 9.8, 12.01, 13.86, 15.55, 18.44, 18.54, 17.62, 15.77, 15.08, 14.87, 14.87, 14.84, 13.65, 13.21, 12.27, 10.05, 9.68, 9.21, 10.23, 11.12, -7.59, -6.44, -5.9, -6.64, -6.32, -4.96, -3.11, -0.0, -0.0, -0.0, 13.86, 13.86, 13.86, 13.77, 13.77, 13.77, 13.96, 13.96, 14.47, 14.13, 14.13, 14.66, 15.09, 15.18, 15.18, 14.42, 14.31, 14.23, 15.27, 15.14, 16.61, 15.61, 14.79, 16.09, 15.44, 15.98, 16.22, 15.98, 16.96, 16.99, 17.43, 17.4, 17.33, 17.31, 16.95, 15.2, 12.71, 11.21, 10.16, 8.03, 8.94, 9.32, 9.11, 8.72, 7.61, 9.6, 8.54, 9.04, 8.63, 8.4, 8.4, 8.4, 8.4, 8.4, 7.82, 8.21, 9.1, 8.06, 8.42, 9.6, 9.63, 9.54, 9.54, 9.32, 8.45, 8.45, 8.94, 9.39, 10.28, 11.62, 13.41, 16.01, 18.17, 19.07, 18.7, 16.99, 16.07, 15.56, 15.18, 14.75, 14.3, 13.84, 12.94, 11.51, 10.14, 9.28, 9.28, 9.74, 10.46, 4.83, -0.0, -4.32, -6.45, -3.11, -0.0, -0.0, -0.0, -0.0, 13.86, 13.86, 13.86, 13.77, 13.77, 13.77, 13.53, 13.96, 14.47, 14.56, 14.13, 14.66, 15.09, 15.18, 15.18, 15.25, 14.37, 14.31, 12.3, 14.28, 16.24, 15.81, 15.69, 14.86, 15.77, 16.3, 15.99, 16.96, 17.43, 17.86, 17.78, 17.22, 17.22, 17.22, 16.78, 16.43, 14.75, 12.96, 11.62, 10.28, 9.37, 9.77, 9.57, 9.21, 8.4, 9.6, 9.04, 9.04, 9.03, 9.03, 8.48, 8.48, 8.0, 8.4, 8.18, 7.15, 8.12, 8.03, 9.1, 9.04, 9.54, 9.54, 9.76, 9.83, 8.94, 8.94, 9.39, 9.83, 10.73, 11.59, 12.94, 15.12, 17.72, 19.16, 18.33, 16.82, 14.53, 15.1, 14.17, 14.21, 14.11, 13.84, 13.41, 11.6, 10.7, 9.8, 9.35, 8.82, 8.67, 7.6, 5.72, 3.44, 2.06, 3.65, 4.2, 3.7, 2.28, 2.28, 13.86, 13.86, 13.86, 13.77, 13.77, 13.77, 13.53, 13.96, 14.47, 14.9, 14.56, 14.66, 14.66, 15.18, 15.18, 15.25, 14.53, 14.1, 13.89, 15.36, 16.3, 16.41, 16.05, 15.93, 16.84, 17.76, 17.41, 16.54, 16.52, 16.9, 17.35, 17.24, 17.24, 17.24, 16.8, 16.9, 15.57, 13.84, 12.52, 11.18, 10.28, 9.82, 9.24, 9.11, 8.22, 6.95, 9.63, 9.54, 9.29, 8.85, 8.06, 8.06, 8.06, 8.0, 6.98, 6.95, 6.95, 7.59, 9.1, 9.04, 8.56, 9.24, 9.35, 9.39, 9.39, 9.39, 9.39, 9.83, 10.28, 11.12, 11.84, 13.99, 16.46, 18.35, 11.96, 13.15, 14.99, 13.8, 12.51, 12.33, 13.11, 12.87, 12.94, 12.07, 10.7, 9.35, 8.9, 9.21, 8.3, 8.4, 7.36, 5.98, 6.45, 5.36, 5.1, 3.91, 3.63, 3.63, 13.86, 13.86, 13.86, 13.86, 13.77, 13.77, 13.96, 14.03, 14.47, 14.9, 14.56, 14.66, 15.09, 15.18, 15.18, 15.25, 14.53, 14.1, 14.31, 15.69, 16.54, 15.98, 15.17, 15.2, 16.54, 17.43, 17.88, 17.43, 16.99, 16.07, 16.52, 16.47, 16.47, 16.47, 16.47, 16.47, 16.01, 14.73, 12.95, 11.62, 10.71, 10.26, 9.76, 8.77, 7.51, 6.8, 9.21, 9.32, 8.94, 8.38, 7.94, 7.89, 7.28, 7.28, 6.98, 6.32, 6.11, 7.27, 8.73, 7.82, 8.48, 8.9, 9.39, 8.94, 8.94, 9.39, 9.39, 9.39, 9.83, 9.06, 10.0, 10.94, 18.11, 16.66, 10.96, 9.83, 14.22, 15.41, 13.74, 12.13, 10.53, 11.2, 11.18, 11.06, 9.83, 9.35, 8.99, 8.58, 8.23, 7.65, 7.68, 6.41, 6.42, 5.94, 5.21, 5.21, 4.37, 4.37, 13.86, 13.86, 13.86, 13.86, 13.77, 13.77, 13.79, 14.03, 14.47, 14.9, 14.56, 15.09, 15.09, 15.18, 14.84, 15.25, 14.95, 14.18, 15.04, 15.55, 16.05, 16.73, 15.98, 14.66, 15.18, 16.54, 17.43, 17.43, 17.43, 16.99, 16.09, 16.07, 16.07, 16.07, 16.07, 16.07, 16.01, 15.12, 13.39, 11.61, 10.27, 9.82, 10.2, 10.08, 8.55, 7.14, 9.76, 9.32, 8.85, 8.48, 8.48, 7.6, 7.28, 7.28, 6.79, 6.01, 5.69, 6.32, 7.9, 8.93, 8.06, 8.44, 8.45, 8.45, 8.9, 9.35, 9.35, 9.77, 8.56, 8.8, 8.82, 14.71, 17.72, 18.35, 16.54, 13.2, 11.76, 12.27, 14.3, 13.88, 11.77, 9.84, 10.0, 9.68, 9.8, 8.9, 8.58, 7.51, 7.06, 6.24, 5.76, 5.86, 6.32, 6.01, 5.64, 5.21, 4.6, 4.6, 13.86, 13.86, 13.86, 13.86, 13.86, 13.77, 13.79, 14.03, 14.47, 14.9, 14.56, 14.66, 15.09, 15.18, 14.84, 14.95, 15.25, 14.86, 14.61, 15.55, 15.78, 16.7, 16.7, 16.43, 15.55, 15.62, 16.97, 17.43, 17.43, 16.99, 16.99, 16.54, 15.65, 15.65, 16.07, 16.07, 16.07, 15.63, 14.23, 12.0, 10.22, 9.77, 9.76, 10.08, 9.58, 9.11, 8.02, 8.41, 8.74, 8.97, 8.55, 9.89, 8.06, 7.47, 7.28, 6.79, 6.79, 6.52, 8.3, 8.4, 9.04, 8.06, 8.73, 9.16, 9.21, 9.21, 9.06, 8.72, 8.42, 9.03, 10.89, 12.96, 16.5, 17.44, 18.39, 17.64, 17.39, 16.27, 14.6, 12.07, 13.11, 11.68, 10.15, 9.75, 8.94, 7.85, 7.2, 6.79, 6.32, 5.94, 6.95, 6.64, 6.68, 6.73, 6.01, 5.94, 5.13, 5.13, 13.86, 13.86, 13.86, 13.86, 13.86, 13.79, 13.79, 14.03, 14.47, 14.47, 14.66, 14.66, 15.09, 15.18, 14.84, 14.95, 15.25, 15.3, 15.3, 15.34, 15.34, 15.82, 16.7, 16.7, 16.43, 15.99, 16.07, 16.96, 17.43, 17.43, 16.99, 16.99, 16.54, 16.54, 16.09, 16.09, 16.09, 16.07, 15.62, 13.34, 11.11, 9.77, 9.67, 9.64, 10.05, 10.05, 9.62, 8.3, 8.74, 9.21, 9.18, 8.39, 9.74, 8.38, 7.89, 7.89, 7.2, 7.81, 7.89, 8.3, 9.04, 9.63, 8.56, 9.16, 9.16, 8.56, 8.99, 8.47, 8.03, 9.36, 10.41, 12.96, 13.39, 16.36, 16.76, 17.13, 17.16, 17.35, 15.57, 12.07, 12.63, 13.2, 12.6, 10.66, 7.37, 6.99, 6.52, 5.53, 5.82, 5.64, 6.64, 7.31, 7.33, 6.68, 6.32, 6.24, 5.86, 5.86, 13.86, 13.86, 13.86, 13.86, 13.86, 13.79, 13.79, 13.79, 14.03, 14.47, 14.66, 14.66, 15.09, 14.75, 15.18, 14.95, 15.25, 15.3, 15.3, 15.3, 15.34, 15.34, 15.82, 16.26, 16.26, 16.43, 15.99, 16.52, 16.96, 16.99, 16.99, 16.99, 16.99, 16.99, 16.54, 16.54, 16.54, 16.54, 16.51, 15.62, 13.77, 11.99, 10.57, 9.67, 9.93, 10.08, 10.08, 9.21, 8.86, 8.86, 8.92, 8.92, 8.05, 7.57, 8.0, 7.37, 7.89, 7.45, 6.79, 7.31, 9.03, 9.06, 10.47, 8.9, 9.74, 8.4, 8.07, 7.68, 8.43, 9.75, 11.05, 11.62, 12.52, 13.83, 14.55, 15.13, 16.69, 16.03, 13.86, 10.14, 9.8, 11.9, 14.3, 9.6, 5.69, 5.06, 5.15, 5.53, 6.01, 6.32, 6.32, 7.31, 7.68, 7.35, 7.31, 7.31, 7.31, 7.31, 13.86, 13.86, 13.86, 13.86, 13.86, 13.79, 13.79, 13.79, 14.03, 14.07, 14.23, 14.66, 14.66, 14.75, 14.75, 14.81, 15.25, 15.3, 15.3, 15.3, 15.34, 15.34, 15.34, 15.38, 15.82, 15.97, 15.98, 15.98, 16.44, 16.51, 16.52, 16.52, 16.97, 16.99, 16.99, 16.54, 16.54, 16.99, 16.99, 16.07, 14.73, 12.87, 10.98, 9.54, 9.97, 9.54, 10.11, 9.76, 8.92, 8.94, 8.94, 8.49, 8.49, 7.6, 7.15, 7.6, 7.6, 7.6, 7.06, 7.31, 7.98, 8.9, 9.83, 9.35, 8.79, 8.59, 7.13, 8.12, 9.13, 10.14, 11.14, 12.07, 12.49, 12.49, 12.94, 14.28, 16.01, 15.63, 12.41, 7.71, 6.01, 6.0, 6.8, 6.97, 7.33, 7.21, 5.37, 6.01, 6.39, 6.73, 7.35, 8.38, 8.38, 7.96, 7.96, 7.96, 7.95, 7.95, 13.86, 13.86, 13.86, 13.86, 13.86, 13.86, 13.79, 14.23, 14.03, 14.03, 14.23, 14.66, 15.09, 15.18, 15.18, 14.75, 14.81, 14.81, 14.86, 14.86, 15.3, 15.34, 15.34, 15.34, 15.38, 15.53, 15.53, 15.97, 16.43, 16.44, 16.52, 16.52, 16.52, 16.52, 16.52, 16.54, 16.54, 16.99, 16.99, 16.51, 15.62, 13.39, 11.52, 9.79, 9.06, 8.91, 10.57, 11.62, 11.52, 9.39, 8.94, 8.92, 8.47, 8.02, 6.61, 6.6, 7.5, 7.6, 7.06, 7.52, 7.6, 8.94, 9.39, 9.33, 8.72, 6.31, 7.13, 8.42, 9.13, 10.25, 11.18, 12.52, 12.42, 12.74, 13.49, 14.58, 15.1, 14.87, 12.86, 9.8, 6.65, 12.07, 13.56, 12.39, 8.4, 7.28, 7.85, 8.43, 8.67, 9.05, 9.04, 9.3, 10.09, 8.94, 8.58, 8.93, 8.18, 8.18, 13.86, 13.86, 13.86, 13.86, 13.86, 13.86, 13.79, 14.23, 14.03, 14.07, 14.07, 14.66, 14.66, 15.18, 15.61, 15.18, 14.81, 14.81, 14.86, 14.86, 15.3, 15.34, 15.34, 15.34, 15.34, 15.51, 15.08, 15.53, 15.98, 15.98, 15.99, 16.0, 16.0, 16.07, 16.52, 16.51, 16.54, 16.54, 16.99, 16.99, 16.09, 14.28, 12.49, 9.83, 8.01, 9.79, 12.07, 13.38, 13.23, 12.27, 11.12, 8.9, 8.39, 7.5, 6.6, 6.47, 7.01, 7.12, 7.6, 7.15, 7.15, 8.9, 8.49, 8.79, 6.64, 6.11, 6.95, 8.73, 8.72, 9.83, 11.14, 12.04, 12.94, 13.76, 14.42, 14.83, 14.83, 14.64, 14.22, 13.86, 12.96, 10.71, 12.89, 14.0, 12.36, 11.72, 11.06, 10.94, 10.94, 10.65, 10.65, 11.2, 11.34, 10.28, 9.7, 9.45, 9.34, 9.34, 13.41, 13.41, 13.86, 13.86, 13.86, 13.86, 13.79, 14.25, 14.07, 14.51, 14.51, 14.07, 14.66, 14.75, 15.18, 15.18, 15.25, 15.25, 15.25, 15.3, 15.3, 15.3, 15.3, 15.34, 15.34, 15.51, 15.07, 14.64, 15.08, 15.54, 15.99, 15.55, 15.55, 15.55, 16.07, 16.07, 16.51, 16.54, 16.54, 16.99, 16.54, 15.2, 12.96, 10.73, 8.94, 10.12, 12.83, 14.28, 14.3, 13.41, 11.62, 9.39, 6.71, 6.58, 5.7, 5.24, 6.79, 7.42, 7.54, 7.15, 7.11, 8.45, 8.45, 7.58, 7.28, 7.37, 7.6, 9.13, 9.89, 10.28, 9.83, 10.73, 12.52, 14.75, 16.01, 15.35, 14.58, 13.49, 14.11, 15.63, 16.09, 16.09, 14.26, 14.11, 14.0, 13.88, 13.69, 13.42, 12.4, 11.99, 11.88, 12.22, 12.22, 12.01, 10.79, 10.27, 9.68, 9.68, 13.41, 13.41, 13.41, 13.86, 13.86, 13.86, 13.8, 14.25, 14.25, 14.51, 14.51, 14.51, 14.23, 15.18, 15.18, 15.18, 15.25, 15.68, 15.68, 15.68, 15.74, 15.74, 15.3, 15.34, 15.34, 15.34, 15.07, 14.18, 16.04, 14.64, 15.41, 15.85, 15.85, 15.54, 15.54, 16.07, 16.07, 16.51, 16.54, 16.54, 16.54, 15.65, 13.86, 11.18, 10.26, 10.96, 12.77, 14.73, 13.86, 12.48, 10.25, 8.02, 7.15, 6.71, 5.81, 4.44, 5.2, 6.88, 7.31, 6.94, 6.65, 7.6, 8.06, 7.76, 8.37, 8.24, 8.05, 9.39, 10.28, 10.73, 9.83, 10.24, 12.45, 15.15, 17.43, 17.27, 13.49, 11.87, 12.58, 14.15, 16.08, 16.09, 15.58, 14.19, 14.11, 14.0, 13.88, 13.26, 13.49, 12.22, 12.01, 12.01, 12.18, 12.33, 11.71, 10.8, 10.32, 10.32, 13.41, 13.41, 13.41, 13.86, 13.86, 13.86, 13.8, 14.25, 14.25, 14.51, 14.51, 14.51, 14.51, 14.23, 15.18, 15.18, 15.18, 15.18, 15.25, 15.68, 15.68, 15.74, 15.74, 15.3, 14.9, 14.9, 14.9, 14.03, 13.59, 15.25, 14.5, 15.53, 15.97, 15.97, 16.06, 16.06, 16.06, 16.51, 16.51, 16.51, 16.54, 16.09, 14.3, 12.07, 10.71, 11.53, 12.86, 13.83, 13.86, 11.62, 9.39, 8.94, 8.94, 8.05, 7.15, 6.26, 5.81, 5.31, 6.2, 6.2, 5.81, 7.54, 8.82, 7.81, 8.43, 7.98, 8.05, 8.43, 9.83, 10.73, 10.24, 10.58, 11.59, 14.3, 19.22, 19.67, 14.67, 11.95, 11.98, 12.94, 14.75, 15.63, 15.58, 15.58, 14.19, 14.11, 14.44, 13.84, 13.92, 12.58, 12.27, 11.89, 11.99, 11.99, 11.53, 11.51, 10.18, 10.18, 13.41, 13.41, 13.41, 13.41, 13.86, 13.86, 13.8, 14.25, 14.25, 14.51, 14.51, 14.95, 14.51, 14.23, 14.75, 15.18, 15.18, 15.18, 15.25, 15.68, 15.68, 16.17, 15.74, 15.74, 14.9, 14.9, 14.9, 14.47, 14.25, 14.5, 14.64, 15.08, 15.61, 15.61, 16.06, 16.06, 16.06, 16.06, 16.5, 16.5, 16.5, 16.54, 15.2, 12.96, 11.62, 11.6, 12.42, 13.75, 13.76, 11.98, 9.76, 9.37, 9.37, 8.92, 8.03, 7.13, 6.68, 5.78, 4.88, 4.88, 7.6, 8.05, 8.05, 8.49, 7.6, 7.6, 8.05, 8.05, 9.39, 10.28, 9.79, 11.55, 12.07, 13.39, 17.86, 20.1, 17.36, 14.28, 13.41, 13.86, 14.75, 15.65, 16.09, 16.08, 15.18, 13.81, 14.19, 14.18, 13.33, 12.43, 12.05, 12.04, 11.6, 11.62, 11.62, 11.15, 10.7, 10.7, 13.41, 13.41, 13.41, 13.41, 13.86, 13.86, 13.8, 14.25, 14.69, 14.51, 14.95, 14.95, 14.95, 14.23, 14.31, 14.75, 14.75, 14.75, 14.75, 15.25, 15.68, 15.68, 15.74, 15.74, 15.3, 14.9, 14.9, 14.47, 14.47, 14.94, 15.08, 15.08, 15.17, 15.17, 15.62, 15.62, 16.06, 16.06, 16.5, 16.5, 16.5, 16.09, 15.2, 13.41, 12.07, 11.6, 12.49, 13.31, 13.18, 12.74, 10.54, 10.11, 9.31, 8.86, 8.41, 7.51, 7.06, 6.16, 5.7, 5.33, 4.92, 8.05, 8.05, 8.05, 8.49, 8.49, 7.6, 8.49, 8.94, 9.39, 9.8, 11.55, 12.96, 13.39, 15.63, 17.42, 18.03, 16.69, 16.01, 15.65, 15.18, 15.58, 15.63, 15.2, 14.75, 13.86, 14.74, 13.39, 12.52, 12.07, 11.62, 11.18, 11.18, 11.18, 11.18, 11.18, 11.18, 11.18, 13.41, 13.41, 13.41, 13.41, 13.86, 13.86, 14.25, 14.25, 14.69, 14.69, 14.95, 14.95, 14.95, 14.23, 14.23, 14.66, 14.75, 14.75, 14.75, 15.18, 15.25, 15.68, 15.74, 15.74, 15.3, 14.86, 14.9, 14.47, 14.47, 14.9, 15.07, 15.08, 14.64, 14.64, 14.64, 15.17, 15.62, 15.61, 16.06, 16.06, 16.05, 16.09, 15.65, 13.41, 12.07, 11.6, 12.05, 12.86, 13.15, 12.74, 11.28, 9.93, 9.5, 9.21, 8.3, 7.87, 7.07, 6.61, 6.16, 5.24, 5.24, 5.36, 8.05, 7.6, 8.05, 8.94, 7.98, 8.44, 8.94, 8.94, 10.73, 10.28, 13.36, 13.41, 14.75, 15.2, 16.01, 17.27, 17.81, 17.88, 16.48, 15.05, 14.23, 13.78, 12.95, 12.52, 12.52, 11.62, 11.62, 11.18, 11.18, 11.18, 11.18, 11.18, 10.73, 11.18, 11.18, 11.18, 12.96, 12.96, 13.41, 13.41, 13.86, 13.86, 14.25, 14.25, 14.69, 14.69, 14.95, 14.95, 14.95, 14.66, 14.23, 14.23, 14.66, 14.75, 14.75, 15.18, 15.25, 15.25, 15.68, 15.74, 15.3, 14.86, 14.86, 14.42, 14.47, 14.9, 15.07, 15.07, 14.62, 14.64, 14.64, 14.64, 14.64, 15.17, 15.61, 16.06, 16.05, 16.05, 15.2, 12.96, 10.28, 10.73, 11.53, 12.3, 12.53, 12.53, 11.66, 10.8, 9.93, 9.46, 8.6, 7.87, 7.4, 6.94, 5.99, 5.7, 5.24, 5.2, 8.05, 7.6, 8.05, 8.94, 8.05, 8.49, 8.94, 8.94, 9.39, 10.28, 12.45, 14.71, 14.75, 14.28, 14.73, 16.52, 18.31, 18.72, 17.42, 14.74, 13.39, 12.94, 12.52, 12.07, 12.07, 11.18, 11.18, 11.18, 11.18, 11.18, 11.18, 11.18, 11.18, 10.73, 10.73, 11.18, 12.96, 12.96, 13.41, 13.41, 13.86, 13.86, 14.25, 14.25, 14.69, 14.69, 14.95, 14.95, 14.95, 14.66, 14.66, 14.23, 14.23, 14.66, 14.75, 15.18, 15.18, 15.25, 15.25, 15.68, 15.3, 14.86, 14.42, 14.42, 14.42, 14.47, 14.9, 14.47, 14.62, 14.62, 14.62, 14.62, 14.18, 15.07, 15.07, 15.51, 15.49, 16.05, 14.7, 12.07, 9.83, 10.73, 11.54, 12.14, 12.72, 12.21, 11.79, 10.95, 10.1, 9.26, 8.6, 8.17, 7.26, 7.37, 6.04, 5.57, 5.09, 5.2, 8.05, 7.15, 7.6, 8.49, 8.49, 8.05, 8.49, 8.49, 8.94, 10.28, 12.07, 13.83, 16.07, 14.75, 14.22, 15.34, 16.76, 17.74, 16.09, 15.2, 14.3, 13.41, 12.96, 12.52, 12.07, 11.62, 11.62, 11.62, 11.62, 11.62, 11.62, 11.62, 11.18, 10.73, 10.7, 10.73, 12.96, 12.96, 12.96, 13.41, 13.86, 13.86, 14.25, 14.25, 14.69, 14.69, 14.95, 14.95, 14.95, 14.95, 14.66, 14.23, 14.23, 14.51, 14.95, 14.75, 15.18, 15.25, 15.25, 15.25, 15.3, 14.86, 14.42, 14.42, 13.99, 13.99, 14.47, 14.47, 14.47, 14.47, 14.03, 14.47, 14.03, 14.18, 15.07, 15.05, 15.49, 15.46, 14.55, 11.84, 10.68, 11.99, 13.65, 13.57, 13.35, 12.79, 12.1, 11.27, 10.01, 9.68, 8.42, 8.17, 7.69, 6.79, 6.3, 5.88, 5.57, 5.09, 5.32, 8.05, 8.05, 7.94, 7.54, 7.98, 8.05, 8.49, 8.94, 8.94, 11.62, 12.96, 15.02, 15.01, 14.75, 15.01, 15.31, 14.59, 14.68, 14.74, 14.75, 14.3, 13.39, 12.94, 12.5, 12.05, 12.05, 11.6, 11.62, 11.62, 11.62, 11.62, 11.18, 10.73, 10.28, 10.7, 12.96, 12.96, 12.96, 13.41, 13.41, 13.86, 13.8, 14.25, 14.25, 14.69, 14.51, 14.51, 14.95, 14.95, 14.51, 14.51, 14.51, 14.51, 14.51, 14.99, 14.75, 14.75, 14.81, 15.25, 15.25, 15.3, 14.42, 13.99, 13.99, 13.99, 13.99, 14.47, 14.47, 14.47, 14.03, 14.03, 14.03, 13.55, 13.99, 14.42, 14.42, 14.81, 13.88, 12.08, 10.73, 12.39, 14.75, 14.95, 13.86, 13.28, 13.02, 11.76, 10.18, 9.08, 8.34, 7.93, 7.51, 7.26, 7.01, 6.72, 5.81, 5.31, 7.45, 7.01, 7.45, 8.05, 7.54, 8.38, 7.6, 8.05, 8.49, 8.94, 10.73, 11.18, 12.45, 14.81, 16.36, 16.09, 13.21, 11.84, 11.42, 12.43, 13.33, 12.88, 12.88, 12.43, 11.98, 11.98, 11.52, 11.52, 11.52, 11.52, 11.6, 11.59, 11.18, 10.73, 10.28, 10.28, 12.52, 12.52, 12.96, 12.96, 13.41, 13.41, 13.8, 14.25, 14.25, 14.07, 14.51, 14.51, 14.51, 14.51, 14.51, 14.51, 14.51, 14.51, 14.51, 14.51, 14.99, 14.75, 14.81, 14.81, 14.81, 14.81, 14.42, 13.99, 13.99, 13.55, 13.55, 13.55, 14.03, 14.03, 14.03, 13.59, 13.55, 13.11, 13.55, 13.99, 13.99, 13.94, 13.5, 11.87, 10.96, 12.15, 14.31, 15.05, 14.07, 13.59, 13.15, 11.84, 9.42, 9.06, 8.48, 8.06, 7.51, 7.51, 7.51, 7.01, 6.51, 6.0, 5.51, 7.45, 7.6, 7.6, 8.05, 8.05, 7.15, 8.05, 8.49, 8.49, 10.2, 9.79, 11.55, 13.41, 16.01, 17.72, 15.62, 12.07, 11.15, 11.6, 12.05, 12.5, 12.5, 12.04, 11.6, 11.6, 11.52, 11.52, 11.52, 11.52, 11.52, 11.6, 11.15, 10.73, 10.73, 10.73, 12.52, 12.52, 12.96, 12.96, 13.41, 13.41, 13.8, 13.8, 13.8, 14.07, 14.07, 14.51, 14.51, 14.51, 14.51, 14.51, 14.51, 14.51, 14.51, 14.51, 14.99, 14.75, 14.75, 14.81, 14.81, 14.81, 14.37, 13.99, 13.55, 13.55, 13.11, 13.11, 13.11, 13.32, 13.75, 13.11, 13.11, 13.11, 13.11, 13.07, 13.5, 13.5, 13.07, 11.54, 10.95, 12.3, 13.82, 14.16, 13.37, 12.47, 12.02, 11.13, 9.34, 9.21, 8.77, 8.63, 7.63, 7.51, 7.31, 7.31, 6.8, 6.51, 5.6, 7.21, 7.6, 7.6, 8.05, 8.05, 7.1, 7.54, 8.05, 8.45, 9.24, 9.97, 10.89, 11.8, 14.3, 17.15, 16.96, 15.71, 15.53, 15.62, 15.17, 13.86, 12.96, 12.52, 12.07, 12.07, 12.05, 11.6, 11.6, 11.52, 11.52, 11.52, 11.15, 10.7, 10.7, 10.7, 12.52, 12.52, 12.96, 12.96, 13.41, 13.41, 13.8, 13.8, 14.25, 14.07, 14.07, 14.51, 14.51, 14.51, 14.51, 14.51, 14.51, 14.51, 14.51, 14.51, 14.95, 14.75, 14.75, 14.81, 14.81, 14.81, 14.37, 13.99, 13.55, 12.89, 12.89, 12.89, 12.89, 12.89, 12.89, 12.89, 12.46, 13.11, 13.07, 13.07, 13.07, 13.07, 12.63, 11.11, 10.75, 11.61, 13.11, 13.11, 13.28, 11.93, 11.14, 10.25, 8.94, 8.94, 8.45, 8.36, 7.76, 7.63, 7.09, 7.31, 7.2, 6.8, 6.51, 5.81, 7.94, 8.05, 7.89, 7.08, 7.37, 7.54, 8.94, 8.29, 8.99, 9.97, 10.45, 11.05, 12.52, 14.66, 16.53, 16.27, 16.78, 18.84, 20.34, 18.31, 13.86, 13.41, 12.96, 12.96, 12.5, 12.05, 12.47, 11.08, 11.52, 11.51, 11.06, 10.62, 10.62, 10.62, 12.52, 12.52, 12.96, 12.96, 12.96, 13.41, 13.36, 13.8, 14.25, 14.07, 14.07, 14.07, 14.51, 14.51, 14.51, 14.47, 14.47, 14.51, 14.51, 14.51, 14.23, 14.75, 14.75, 14.75, 14.81, 14.81, 14.37, 13.94, 13.32, 13.32, 12.89, 12.46, 12.46, 12.46, 12.46, 12.46, 12.46, 12.39, 13.07, 12.63, 12.63, 12.63, 12.63, 11.11, 10.75, 11.61, 12.46, 12.68, 12.63, 11.93, 11.05, 9.8, 8.91, 8.46, 8.05, 8.01, 7.92, 7.76, 7.21, 7.01, 6.8, 6.8, 6.51, 6.3, 5.7, 8.49, 8.05, 7.15, 7.6, 8.05, 7.85, 8.29, 8.77, 9.68, 10.14, 10.69, 11.62, 12.96, 14.11, 14.64, 15.24, 17.39, 20.0, 18.14, 16.07, 14.3, 13.39, 13.34, 12.86, 12.79, 11.44, 10.45, 10.93, 10.93, 10.93, 10.45, 10.45, 10.45, 12.52, 12.52, 12.96, 12.96, 13.41, 13.41, 13.36, 13.8, 13.8, 14.07, 14.07, 14.07, 14.51, 14.51, 14.47, 14.47, 14.47, 14.47, 14.51, 14.51, 14.23, 14.75, 14.75, 14.75, 14.81, 14.81, 14.1, 13.67, 13.25, 13.32, 12.89, 12.46, 12.46, 12.04, 12.04, 11.96, 11.96, 11.96, 12.63, 12.63, 12.63, 12.63, 12.63, 11.54, 10.68, 11.61, 12.2, 12.2, 12.2, 11.49, 10.58, 9.7, 8.91, 8.46, 8.02, 8.02, 8.02, 7.5, 7.92, 7.33, 6.72, 6.51, 6.1, 5.81, 5.24, 8.49, 7.6, 7.94, 8.38, 7.81, 8.29, 8.29, 8.73, 9.21, 10.24, 10.73, 11.18, 12.52, 12.86, 12.58, 13.72, 16.76, 19.41, 18.6, 17.26, 15.65, 13.39, 13.23, 12.58, 11.66, 11.18, 10.93, 10.93, 10.49, 10.49, 10.02, 10.02, 10.02, 12.52, 12.52, 12.96, 12.96, 12.96, 13.41, 13.8, 13.8, 13.8, 13.8, 14.07, 14.07, 14.03, 14.47, 14.47, 14.47, 14.47, 14.47, 14.51, 14.07, 13.8, 14.23, 14.75, 14.75, 14.75, 14.81, 14.1, 13.67, 13.25, 13.25, 12.82, 12.82, 12.39, 11.96, 11.96, 11.54, 11.54, 11.96, 12.14, 12.14, 12.14, 12.2, 11.96, 11.54, 10.68, 11.54, 12.2, 12.2, 11.71, 10.84, 10.58, 10.12, 9.26, 8.82, 8.02, 7.57, 7.57, 7.5, 7.5, 7.48, 7.33, 6.3, 5.81, 4.9, 4.6, 7.89, 7.45, 7.5, 7.94, 7.81, 8.89, 8.44, 8.9, 9.34, 9.79, 10.25, 10.73, 11.62, 11.95, 12.24, 13.18, 14.87, 16.76, 18.58, 19.03, 16.92, 13.86, 12.66, 11.47, 11.06, 11.09, 10.95, 10.68, 10.25, 10.25, 9.83, 9.83, 9.83, 12.52, 12.52, 12.96, 12.96, 12.96, 13.41, 13.8, 13.8, 13.8, 14.25, 14.07, 14.03, 14.47, 14.47, 14.47, 14.47, 14.47, 14.47, 14.51, 14.23, 14.23, 14.23, 14.75, 14.75, 14.75, 14.1, 14.1, 13.67, 13.25, 12.82, 12.82, 12.82, 12.39, 11.96, 11.96, 11.54, 11.54, 11.54, 11.45, 12.14, 12.14, 11.87, 11.96, 11.54, 11.11, 11.96, 12.63, 12.14, 11.28, 10.41, 10.12, 9.68, 9.68, 9.24, 8.38, 7.94, 7.5, 7.06, 7.06, 7.5, 7.33, 6.23, 5.31, 4.8, 4.27, 6.0, 6.45, 7.1, 7.54, 8.29, 8.73, 9.21, 9.21, 9.21, 9.35, 9.79, 10.28, 10.73, 11.14, 11.51, 12.41, 13.18, 14.21, 16.46, 18.45, 17.62, 12.44, 11.03, 10.09, 10.15, 10.09, 10.23, 10.15, 10.01, 9.6, 9.33, 9.33, 9.33, 12.52, 12.52, 12.96, 12.96, 12.96, 13.41, 13.8, 13.8, 13.8, 14.25, 14.03, 14.03, 14.47, 14.47, 14.47, 14.47, 14.47, 14.47, 14.23, 14.23, 14.23, 14.23, 14.66, 14.75, 14.31, 13.99, 14.1, 13.67, 13.25, 13.25, 12.82, 12.82, 12.39, 11.96, 11.96, 11.54, 11.54, 11.45, 11.45, 11.45, 11.45, 11.45, 11.54, 11.54, 11.54, 11.96, 12.63, 12.14, 11.28, 10.41, 10.12, 9.68, 9.68, 8.67, 8.24, 7.81, 7.84, 7.4, 6.94, 6.94, 6.9, 6.04, 5.31, 4.8, 4.27, 5.6, 5.6, 6.45, 6.88, 7.81, 8.06, 8.48, 8.99, 9.64, 9.21, 9.34, 9.83, 9.83, 10.73, 11.14, 12.04, 12.39, 12.71, 14.4, 17.57, 15.63, 12.96, 10.05, 7.92, 7.96, 8.59, 8.59, 9.52, 9.6, 8.95, 8.82, 8.82, 8.82, 12.52, 12.52, 12.52, 12.96, 12.96, 12.96, 13.36, 13.8, 13.8, 14.23, 14.03, 14.47, 14.47, 14.47, 14.47, 14.47, 14.47, 14.13, 14.23, 14.23, 14.23, 14.23, 14.23, 14.31, 13.99, 13.99, 13.99, 13.67, 13.25, 13.25, 12.82, 12.82, 12.39, 12.39, 11.96, 11.54, 11.54, 11.03, 11.03, 11.03, 11.45, 11.45, 11.45, 11.11, 11.54, 11.96, 12.58, 12.14, 11.64, 10.78, 10.12, 9.49, 9.49, 8.67, 8.24, 7.84, 7.84, 7.4, 7.4, 6.94, 6.94, 6.3, 5.81, 4.55, 4.37, 4.37, 6.0, 5.6, 6.16, 6.57, 7.12, 7.6, 8.58, 8.6, 9.42, 9.21, 9.79, 9.83, 10.28, 11.18, 11.62, 11.62, 12.52, 14.3, 18.33, 16.54, 14.3, 11.09, 8.19, 7.07, 6.64, 6.51, 7.97, 8.03, 8.05, 7.42, 7.42, 7.42, 12.52, 12.52, 12.52, 12.96, 12.96, 12.91, 13.36, 13.8, 13.79, 14.23, 14.03, 14.47, 14.47, 14.47, 14.47, 14.47, 14.13, 14.13, 14.23, 14.23, 14.23, 14.23, 14.23, 14.23, 13.99, 13.99, 13.57, 13.57, 13.15, 12.82, 12.82, 12.3, 12.3, 12.3, 11.87, 11.45, 11.45, 11.03, 11.03, 11.03, 11.03, 11.03, 11.03, 11.03, 11.03, 11.03, 11.71, 11.71, 11.64, 10.78, 10.35, 9.92, 9.49, 8.91, 8.48, 8.12, 7.69, 7.69, 7.26, 7.21, 6.79, 6.3, 5.6, 5.08, 4.93, 4.41, 5.58, 5.58, 6.16, 6.57, 6.99, 7.2, 7.2, 7.15, 8.99, 8.91, 9.21, 9.79, 10.24, 10.69, 11.14, 11.62, 12.07, 17.86, 19.16, 16.93, 15.14, 12.88, 10.18, 7.76, 6.64, 5.21, 5.76, 6.24, 6.73, 6.79, 6.79, 6.79, 12.52, 12.52, 12.52, 12.52, 12.96, 12.91, 13.36, 13.34, 13.79, 13.79, 14.03, 14.03, 14.47, 14.47, 14.47, 14.13, 14.13, 14.13, 14.13, 14.56, 14.23, 14.23, 14.23, 14.23, 13.86, 13.57, 13.57, 13.57, 13.15, 12.72, 12.72, 12.3, 12.3, 11.87, 11.87, 11.45, 11.45, 11.03, 11.03, 10.6, 11.03, 11.03, 11.03, 11.03, 10.6, 10.6, 11.28, 11.21, 11.21, 10.78, 10.35, 9.92, 9.24, 9.24, 8.91, 8.48, 8.12, 8.12, 7.69, 7.21, 6.79, 6.51, 6.0, 5.47, 5.01, 5.01, 5.21, 5.47, 6.88, 6.88, 7.12, 7.6, 7.6, 6.99, 6.55, 7.58, 8.58, 9.42, 9.92, 10.56, 10.58, 11.14, 13.83, 17.41, 19.21, 16.93, 15.5, 13.25, 11.53, 10.18, 8.67, 6.32, 4.83, 4.71, 5.36, 6.32, 6.32, 6.32, 12.52, 12.52, 12.52, 12.52, 12.52, 12.91, 13.36, 13.79, 13.79, 13.59, 13.59, 14.03, 14.47, 14.47, 14.47, 14.13, 14.13, 14.13, 14.13, 14.56, 14.56, 14.23, 14.23, 13.86, 13.44, 13.57, 13.57, 13.15, 13.15, 12.72, 12.72, 12.3, 12.3, 11.87, 11.87, 11.45, 11.45, 11.03, 11.03, 10.6, 10.6, 11.03, 11.03, 10.6, 10.6, 10.18, 10.35, 10.35, 10.35, 10.35, 10.35, 9.92, 9.24, 9.24, 9.08, 8.67, 8.34, 8.34, 7.93, 7.09, 7.01, 6.51, 5.89, 5.75, 5.58, 5.05, 5.29, 5.47, 6.57, 6.94, 7.85, 8.29, 8.73, 8.67, 8.37, 7.6, 7.51, 8.6, 9.55, 9.66, 9.92, 10.35, 12.94, 15.2, 17.88, 16.07, 14.11, 12.09, 10.8, 10.37, 10.32, 8.48, 6.11, 4.74, 4.2, 4.94, 4.94, 4.94, 12.52, 12.52, 12.52, 12.52, 12.47, 12.47, 12.9, 13.34, 13.34, 13.15, 13.59, 14.03, 14.03, 14.47, 14.13, 14.13, 14.13, 14.13, 14.13, 14.56, 14.56, 14.56, 14.66, 13.86, 13.44, 13.44, 13.57, 13.15, 13.15, 12.72, 12.3, 12.3, 11.87, 11.87, 11.87, 11.45, 11.45, 11.03, 10.6, 10.6, 10.5, 10.5, 10.5, 10.5, 10.08, 10.08, 10.35, 10.35, 9.92, 9.92, 9.66, 9.66, 9.66, 8.95, 9.08, 8.67, 8.76, 8.34, 7.93, 7.51, 7.2, 6.8, 6.28, 5.75, 5.58, 5.29, 5.05, 5.58, 5.47, 7.12, 7.37, 7.85, 8.44, 8.89, 8.89, 8.73, 8.58, 8.18, 9.2, 9.2, 9.55, 10.41, 11.95, 14.3, 16.54, 15.65, 12.44, 9.89, 8.8, 8.88, 9.34, 8.67, 8.4, 5.86, 2.97, 4.2, 4.2, 4.2, 12.52, 12.52, 12.52, 12.52, 12.91, 12.91, 12.9, 12.9, 13.15, 13.15, 13.59, 14.03, 14.03, 14.13, 14.13, 14.13, 14.13, 14.13, 14.13, 14.13, 14.56, 14.56, 14.11, 13.86, 13.44, 13.44, 13.44, 13.02, 12.72, 12.72, 12.3, 11.87, 11.87, 11.87, 11.45, 11.45, 11.45, 11.03, 11.03, 10.5, 10.5, 10.5, 10.5, 10.5, 10.08, 10.08, 10.08, 9.66, 9.66, 9.66, 9.66, 9.66, 9.36, 8.95, 8.95, 8.8, 8.52, 8.12, 8.12, 7.71, 7.31, 6.8, 6.41, 6.03, 5.86, 5.65, 5.65, 5.65, 5.58, 6.21, 7.12, 7.12, 7.53, 7.81, 8.24, 8.48, 8.58, 8.6, 9.2, 9.2, 9.55, 9.66, 10.89, 12.86, 15.2, 15.65, 12.52, 8.82, 6.64, 6.01, 7.06, 8.21, 8.4, 6.64, 2.28, 2.28, 2.28, 2.28, 12.52, 12.52, 12.52, 12.52, 12.91, 12.9, 12.9, 13.15, 13.15, 13.15, 13.59, 13.59, 14.03, 14.13, 14.13, 14.13, 14.13, 14.13, 14.13, 14.56, 14.56, 14.11, 14.11, 13.86, 13.44, 13.44, 13.02, 13.02, 12.6, 12.18, 12.3, 11.87, 11.87, 11.45, 11.45, 11.45, 11.03, 11.03, 10.92, 10.5, 10.5, 10.5, 10.5, 10.08, 10.08, 10.08, 10.08, 9.66, 9.66, 9.66, 9.66, 9.24, 9.36, 8.95, 8.63, 8.8, 8.4, 8.52, 8.12, 7.48, 7.48, 6.95, 6.95, 6.41, 5.86, 5.86, 5.65, 5.65, 5.65, 6.18, 6.18, 6.6, 6.57, 6.99, 7.2, 8.17, 8.21, 8.21, 8.8, 8.8, 9.55, 9.66, 10.6, 12.24, 14.22, 15.18, 12.96, 8.91, 6.07, 6.01, 5.21, 7.68, 8.72, 7.81, 6.64, 4.2, 4.2, 4.2, 12.52, 12.52, 12.52, 12.47, 12.91, 12.9, 12.9, 13.15, 13.15, 13.15, 13.59, 13.59, 13.7, 13.7, 14.13, 13.7, 13.7, 14.13, 14.13, 14.13, 14.11, 14.11, 14.11, 14.11, 13.44, 13.02, 13.02, 13.02, 12.6, 12.18, 12.18, 11.76, 11.87, 11.45, 11.45, 11.45, 11.45, 10.92, 10.92, 10.5, 10.5, 10.5, 10.08, 10.08, 10.08, 10.08, 9.66, 9.66, 9.66, 9.66, 9.66, 9.24, 8.95, 8.63, 8.63, 8.11, 8.11, 8.27, 8.27, 7.87, 7.48, 7.48, 6.95, 6.56, 6.41, 5.86, 5.86, 6.23, 5.93, 5.86, 6.03, 6.8, 6.57, 6.88, 7.12, 8.06, 8.17, 8.58, 8.21, 8.8, 9.55, 10.18, 10.68, 12.04, 13.49, 14.99, 13.83, 10.73, 8.49, 7.6, 5.21, 5.46, 8.8, 9.54, 8.91, 8.4, 8.4, 8.4, 12.52, 12.52, 12.47, 12.45, 12.45, 12.9, 12.71, 12.71, 13.15, 13.15, 13.59, 13.27, 13.7, 13.7, 13.7, 13.7, 13.7, 13.7, 14.13, 13.7, 13.7, 14.11, 14.11, 13.7, 13.28, 13.02, 13.02, 12.6, 12.6, 12.18, 12.18, 11.76, 11.34, 11.45, 11.45, 11.45, 11.34, 10.92, 10.92, 10.92, 10.5, 10.5, 10.5, 10.08, 10.08, 10.08, 9.66, 9.66, 9.66, 9.66, 9.24, 8.95, 8.95, 8.63, 8.3, 8.11, 8.11, 7.72, 8.27, 7.87, 7.87, 7.07, 6.95, 6.95, 6.41, 6.41, 6.23, 6.23, 6.28, 6.15, 6.03, 7.35, 6.51, 7.6, 7.1, 7.85, 8.06, 8.58, 8.21, 8.8, 9.2, 9.9, 10.43, 11.79, 13.29, 14.99, 14.19, 11.59, 10.28, 9.76, 7.81, 5.21, 6.95, 8.72, 8.72, 8.0, 8.0, 8.0, 12.45, 12.45, 12.9, 12.9, 12.9, 12.9, 12.71, 12.71, 12.71, 13.15, 12.85, 13.27, 13.7, 13.7, 13.7, 13.7, 13.7, 13.28, 13.28, 13.7, 13.7, 13.7, 13.7, 13.7, 13.28, 12.87, 12.87, 12.6, 12.6, 12.18, 12.18, 11.76, 11.34, 11.34, 11.34, 10.58, 10.58, 10.92, 10.92, 10.5, 10.5, 10.38, 10.38, 9.96, 10.08, 10.08, 10.08, 9.66, 9.55, 9.55, 8.8, 8.95, 8.63, 8.3, 7.92, 7.92, 8.11, 7.72, 7.72, 7.72, 7.72, 7.34, 7.34, 6.95, 6.41, 6.41, 6.41, 6.79, 6.59, 6.23, 6.03, 6.1, 5.57, 7.6, 6.71, 7.54, 8.29, 8.72, 8.4, 8.8, 9.03, 9.6, 10.0, 11.09, 12.37, 14.06, 13.74, 12.03, 11.14, 9.77, 8.05, 4.4, 3.49, 6.32, 7.67, 8.0, 8.0, 8.0, 12.45, 12.45, 12.9, 12.9, 12.9, 12.9, 12.71, 12.71, 12.71, 13.15, 12.85, 13.27, 13.7, 13.7, 13.7, 13.7, 13.7, 13.28, 13.28, 13.7, 13.7, 13.7, 13.7, 13.7, 13.28, 12.87, 12.87, 12.6, 12.6, 12.18, 12.18, 11.76, 11.34, 11.34, 11.34, 10.58, 10.58, 10.92, 10.92, 10.5, 10.5, 10.38, 10.38, 9.96, 10.08, 10.08, 10.08, 9.66, 9.55, 9.55, 8.8, 8.95, 8.63, 8.3, 7.92, 7.92, 8.11, 7.72, 7.72, 7.72, 7.72, 7.34, 7.34, 6.95, 6.41, 6.41, 6.41, 6.79, 6.59, 6.23, 6.03, 6.1, 5.57, 7.6, 6.71, 7.54, 8.48, 8.72, 8.4, 8.8, 9.03, 9.42, 10.0, 10.55, 11.37, 12.53, 13.29, 12.37, 11.58, 11.0, 9.45, 5.63, 1.84, 4.2, 5.63, 6.64, 6.64, 6.64]}, {"header": {"dx": 0.06612293990616946, "dy": 0.0552356325346848, "nx": 98, "ny": 59, "la1": 35.046912555036876, "la2": 31.78801023549047, "lo1": -121.43107172385933, "lo2": -114.95102361305473, "refTime": "2026041000", "parameterCategory": 1, "parameterNumber": 3}, "data": [0.0, 0.0, -1.83, -1.83, -1.83, -1.83, -1.83, -1.83, -1.83, -2.09, 0.0, 0.0, 0.0, -1.58, -1.28, 0.0, 0.0, 0.0, 0.0, 0.0, 0.0, 1.54, 0.99, 0.89, 0.89, 0.0, 0.0, 0.0, 0.0, -0.81, -1.75, -4.43, -6.26, -6.71, -6.36, -5.6, -6.13, -6.13, -5.93, -5.03, -4.21, -4.88, -5.2, -5.11, -5.02, -5.35, -5.51, -4.55, -3.01, -1.34, 0.0, 1.0, 1.98, 2.81, 3.81, 4.36, 5.28, 5.67, 5.67, 5.67, 5.67, 5.67, 5.48, 5.48, 5.48, 4.98, 5.15, 4.38, 4.38, 3.46, 3.34, 3.44, 3.32, 3.32, 3.32, 2.44, 1.64, 1.54, 0.92, 0.0, 0.0, 0.0, 0.0, -0.81, -0.81, -0.77, -0.85, -0.85, 0.0, 0.0, 0.0, 0.0, 0.0, 0.0, 1.55, 4.93, 7.59, 8.72, 0.0, 0.0, 0.0, -1.83, -1.83, -1.83, -1.89, -1.89, -1.83, -2.09, 0.0, 0.0, 0.0, -1.52, -1.91, -1.84, -1.28, 0.0, 0.0, 0.0, 0.0, 0.0, 1.54, 1.47, 0.89, 0.85, 0.0, 0.0, 0.0, -0.89, -2.54, -4.43, -6.26, -5.94, -5.21, -5.72, -6.9, -6.9, -7.28, -6.98, -6.95, -7.26, -7.19, -7.93, -8.51, -7.4, -6.72, -4.94, -1.54, 0.0, 2.08, 3.97, 5.2, 5.2, 5.89, 6.43, 6.31, 6.31, 6.31, 5.67, 5.67, 5.48, 5.48, 4.81, 4.1, 4.1, 3.46, 3.46, 3.46, 3.34, 4.36, 4.21, 4.06, 4.06, 4.06, 3.19, 2.44, 1.54, 0.92, 0.0, 0.0, 0.0, 0.0, -0.81, -0.81, -0.77, -0.85, -0.85, 0.0, 0.0, 0.0, 0.0, 0.0, 0.0, 1.55, 4.93, 7.59, 8.72, 0.0, 0.0, 0.0, 0.0, -1.83, -1.83, -1.89, -1.89, -1.89, -2.02, -2.06, 0.0, 0.0, -1.64, -2.6, -2.6, -2.71, -2.42, -1.39, 0.0, 0.0, 0.0, 0.0, 1.69, 1.26, 0.94, 0.89, 0.0, 0.0, -1.75, -2.54, -5.06, -7.01, -6.8, -4.74, -6.01, -6.44, -7.67, -8.4, -8.55, -8.82, -9.8, -10.6, -10.98, -10.12, -9.0, -6.36, 0.0, 2.91, 4.8, 6.0, 6.45, 6.33, 7.12, 6.44, 6.65, 6.31, 5.67, 5.67, 5.67, 5.67, 4.81, 4.81, 4.1, 3.34, 3.34, 2.54, 2.54, 3.56, 5.43, 6.15, 6.15, 5.6, 4.75, 4.06, 3.19, 2.44, 1.9, 0.99, 0.0, 0.0, -0.85, -0.81, -0.85, -1.44, -1.44, -1.58, -0.94, -0.99, 0.0, 0.0, 0.0, 1.77, 3.32, 6.7, 7.59, 7.13, 7.13, 0.0, 0.0, 0.0, 0.0, -1.83, -1.83, -1.89, -3.69, -4.05, -1.96, -1.98, -1.76, -1.98, -1.58, -2.71, -2.71, -4.08, -4.24, -2.62, -2.42, -1.23, 0.0, 0.0, 0.0, 1.18, 1.39, 0.85, 0.0, -0.89, -1.67, -3.45, -6.87, -8.0, -7.44, -6.32, -6.64, -8.18, -9.3, -10.68, -11.64, -13.65, -14.13, -12.66, -11.0, -9.24, -4.01, 1.89, 5.92, 6.31, 7.08, 7.09, 7.12, 7.12, 6.56, 6.21, 5.8, 5.48, 5.67, 5.67, 5.67, 4.81, 4.1, 3.23, 3.23, 2.45, 2.45, 2.72, 4.21, 6.21, 7.54, 7.89, 7.32, 5.81, 3.96, 2.99, 1.64, 0.8, 1.03, 0.0, 0.0, -0.78, -0.85, -1.67, -1.75, -1.75, -1.94, -2.17, -1.05, 0.0, 1.77, 6.4, 5.8, 6.7, 7.9, 7.13, 7.87, 7.13, 6.79, 0.0, 0.0, 0.0, 0.0, 0.0, -1.83, -1.89, -3.69, -4.05, -3.81, -3.82, -3.39, -1.91, -1.84, -2.6, -4.08, -3.68, -3.82, -4.9, -3.82, -3.96, -1.76, 0.0, 0.0, 0.0, 0.0, 1.62, 0.0, 0.0, -1.05, -2.46, -6.3, -10.09, -8.93, -7.9, -7.9, -9.3, -11.6, -14.38, -16.85, -15.64, -13.24, -9.89, -6.65, -1.83, 4.75, 7.65, 7.9, 8.22, 8.12, 7.51, 6.56, 6.56, 6.56, 5.6, 5.8, 5.48, 5.67, 5.67, 4.71, 3.87, 3.14, 3.23, 2.37, 2.45, 2.62, 5.6, 7.93, 9.48, 9.36, 8.99, 7.76, 5.65, 4.18, 1.9, 0.73, 0.0, 0.0, 0.0, 0.0, -0.74, -1.75, -1.75, -1.73, -2.09, 0.0, 1.47, 2.83, 7.26, 9.16, 9.48, 8.53, 8.73, 7.58, 7.51, 7.51, 6.32, 5.72, 0.0, 0.0, 0.0, 0.0, 0.0, -1.83, -1.89, -3.58, -4.05, -3.81, -3.82, -3.25, -2.19, -3.39, -3.07, -3.92, -3.68, -4.24, -4.9, -5.08, -5.6, -4.24, -2.2, 0.0, 0.0, 0.0, 0.0, 2.19, 2.1, 2.1, 1.33, 0.0, -4.88, -7.85, -8.05, -8.73, -9.17, -11.09, -17.1, -17.81, -14.39, -10.12, -6.44, 0.0, 6.94, 8.85, 8.97, 8.12, 8.12, 7.24, 6.45, 6.7, 5.72, 5.93, 5.8, 5.48, 5.48, 4.81, 4.71, 4.0, 3.14, 2.45, 2.37, 1.6, 3.68, 6.72, 9.69, 9.92, 9.89, 8.95, 7.74, 6.4, 5.81, 4.54, 2.38, 1.15, 0.0, 0.81, 0.85, 0.0, -0.89, -0.94, -1.01, 0.0, 1.95, 6.01, 7.33, 10.41, 10.99, 10.65, 10.19, 10.61, 8.4, 7.2, 7.13, 6.64, 5.72, 6.58, 0.0, 0.0, 0.0, 0.0, 0.0, -1.83, -1.83, -3.58, -3.93, -3.81, -3.82, -3.11, -1.76, -2.95, -3.82, -3.92, -3.82, -3.96, -5.08, -5.6, -5.8, -5.81, -4.66, -1.94, 0.0, 0.0, 0.0, 2.81, 4.81, 5.32, 4.8, 2.28, 0.0, -3.11, -4.32, -4.38, -1.77, -4.38, -13.86, -13.41, -13.57, -9.17, 6.0, 11.5, 12.27, 10.12, 9.26, 8.42, 8.12, 6.94, 6.7, 5.86, 5.93, 5.6, 5.6, 4.81, 4.81, 4.1, 3.14, 2.39, 2.45, 1.6, 1.64, 3.82, 8.02, 10.41, 11.28, 10.28, 8.76, 7.63, 6.2, 5.15, 4.13, 2.98, 2.34, 2.57, 1.25, 0.85, 0.89, 1.09, 0.0, 0.0, 5.21, 9.54, 10.73, 11.46, 11.2, 11.53, 10.12, 10.79, 10.87, 10.48, 7.81, 7.07, 6.32, 5.72, 6.3, 6.87, 0.0, 0.0, 0.0, 0.0, 0.0, -1.83, -1.83, -3.58, -3.47, -5.28, -5.0, -5.06, -3.82, -5.0, -5.6, -5.92, -5.86, -4.81, -4.81, -4.98, -4.98, -4.58, -3.53, -4.12, -1.51, 0.0, 0.0, 2.65, 4.66, 4.24, 3.82, 1.98, 0.0, 0.0, 2.42, 5.08, 4.81, 2.71, 0.0, -8.22, 0.0, 12.39, 14.94, 15.61, 13.97, 10.86, 8.22, 8.12, 7.73, 7.96, 5.86, 5.72, 5.6, 5.6, 4.93, 4.93, 4.06, 3.11, 2.37, 2.37, 1.64, 1.58, 2.71, 8.22, 10.63, 11.88, 11.28, 9.17, 7.24, 6.56, 5.11, 3.46, 2.55, 1.89, 1.08, 1.08, 1.08, 1.09, 1.25, 1.58, 1.94, 4.48, 9.54, 10.73, 12.07, 12.71, 10.01, 8.05, 9.17, 9.66, 10.38, 6.79, 7.06, 6.63, 5.31, 4.71, 6.3, 7.56, 0.0, 0.0, 0.0, 0.0, 0.0, -1.83, -1.83, -3.58, -5.02, -5.11, -6.45, -8.22, -9.17, -7.19, -6.21, -7.28, -8.44, -7.44, -6.51, -6.0, -6.0, -5.28, -5.63, -4.11, -3.41, -1.39, 0.0, 0.0, 2.57, 0.0, 0.0, 0.0, 2.5, 7.13, 8.85, 7.14, 5.54, 4.4, 3.25, 4.6, 9.17, 12.27, 12.81, 10.87, 8.93, 7.9, 8.15, 8.54, 7.51, 7.12, 6.9, 5.72, 5.72, 5.72, 5.06, 4.17, 3.42, 3.42, 2.61, 2.61, 1.7, 1.92, 6.69, 10.85, 12.7, 11.9, 10.58, 8.76, 7.24, 5.72, 4.21, 2.33, 0.89, 0.87, 0.0, 0.0, 0.0, 0.0, 0.0, 0.0, 0.0, 5.31, 9.33, 8.94, 10.28, 10.4, 8.53, 6.45, 8.93, 9.54, 7.15, 6.26, 6.51, 6.44, 6.01, 5.31, 7.68, 7.81, 0.0, 0.0, 0.0, 0.0, 0.0, -1.83, -1.83, -3.58, -5.02, -4.55, -6.21, -8.44, -7.95, -8.23, -8.05, -7.79, -9.31, -9.6, -9.22, -8.38, -8.1, -8.1, -7.69, -6.4, -5.63, -3.19, -1.33, 0.0, 0.0, 0.0, 0.0, 0.0, 4.95, 10.82, 8.53, 5.54, 2.6, 2.7, 6.45, 8.44, 9.17, 9.17, 8.22, 7.27, 6.77, 6.86, 6.67, 6.48, 6.79, 6.79, 6.56, 6.33, 6.45, 6.45, 5.86, 5.57, 5.57, 5.57, 4.81, 3.06, 2.19, 6.69, 10.79, 12.98, 12.79, 11.53, 10.58, 9.17, 7.8, 5.86, 3.44, 1.66, 0.84, 0.0, -0.89, -2.54, -2.61, -2.82, -1.98, -2.64, 0.0, 6.14, 11.16, 7.21, 7.63, 6.64, 5.7, 5.7, 9.75, 8.94, 6.51, 6.51, 6.71, 7.37, 6.79, 8.05, 9.2, 7.44, 0.0, 0.0, 0.0, 0.0, 0.0, -1.83, -1.83, -3.58, -5.02, -6.0, -5.8, -7.34, -7.13, -6.64, -5.81, -5.31, -6.35, -4.95, -4.5, -3.33, -5.01, -5.51, -5.37, -3.58, -2.09, -1.83, 0.0, 0.0, 0.0, 0.0, 0.0, 2.54, 6.4, 7.9, 5.54, 1.71, 1.44, 5.2, 7.54, 8.87, 8.72, 8.05, 7.26, 7.15, 5.95, 6.17, 5.95, 5.75, 5.35, 5.63, 6.97, 7.73, 8.12, 8.22, 7.59, 8.31, 9.0, 8.53, 6.21, 3.68, 6.5, 9.9, 13.23, 13.64, 13.19, 12.27, 11.54, 11.28, 9.62, 7.64, 5.25, 3.34, 1.67, 0.0, -2.41, -4.87, -5.8, -5.78, -5.6, -4.24, 0.0, 11.38, 12.65, 10.37, 7.15, 5.06, 6.01, 5.1, 9.33, 7.6, 4.43, 5.72, 6.0, 6.71, 7.2, 9.55, 8.43, 7.28, 0.0, 0.0, 0.0, 0.0, -1.83, -1.83, -3.58, -3.2, -4.52, -4.24, -5.45, -6.73, -7.59, -6.4, -5.28, -3.04, -1.55, 0.0, 0.95, 0.94, 0.92, 0.89, 0.92, 0.0, 0.0, 0.0, 0.0, 0.62, 1.01, 0.0, 1.33, 3.06, 5.2, 4.78, 1.18, 0.0, 1.69, 5.78, 7.93, 8.05, 7.89, 7.63, 6.7, 5.54, 6.42, 5.46, 5.95, 5.95, 5.32, 6.24, 7.59, 8.22, 9.0, 9.67, 10.0, 10.55, 10.87, 9.27, 6.44, 5.1, 8.72, 12.58, 13.91, 13.64, 13.19, 13.43, 13.83, 13.25, 11.88, 9.96, 7.36, 5.89, 2.97, 0.0, -4.36, -6.76, -8.61, -8.85, -8.85, -6.0, 8.31, 11.64, 10.19, 11.52, 8.24, 6.01, 5.72, 5.86, 8.94, 6.32, 4.22, 5.37, 5.06, 6.71, 8.49, 9.75, 8.18, 6.32, 0.0, 0.0, 0.0, 0.0, -1.83, -1.83, -3.2, -3.1, -4.52, -4.38, -5.63, -6.4, -6.6, -6.8, -6.16, -3.69, -1.58, 0.0, 1.29, 1.9, 1.27, 1.81, 1.73, 1.16, 1.16, 1.16, 1.16, 1.73, 1.71, 0.58, 0.0, 1.77, 2.61, 2.71, 0.85, 1.93, 3.51, 5.35, 6.24, 6.08, 5.93, 5.6, 6.08, 4.99, 3.65, 4.0, 5.06, 4.6, 5.46, 6.3, 6.32, 6.68, 7.41, 8.95, 10.88, 11.45, 10.94, 9.48, 5.57, 5.24, 11.71, 13.01, 12.98, 12.15, 12.7, 13.11, 13.48, 13.75, 12.79, 11.9, 10.12, 8.56, 4.92, 0.0, -8.53, -11.2, -12.58, -11.61, -10.01, 6.7, 9.6, 9.3, 8.24, 8.05, 8.85, 8.01, 5.95, 5.06, 9.83, 4.37, 3.35, 2.66, 4.22, 5.06, 8.49, 9.83, 8.05, 5.06, 0.0, 0.0, 0.0, 0.0, -1.83, -1.77, -3.1, -3.1, -4.52, -4.52, -5.31, -5.31, -6.1, -5.85, -5.78, -5.09, -2.8, -1.59, 0.0, 0.68, 0.68, 1.3, 1.34, 2.02, 2.02, 2.02, 1.77, 2.35, 2.28, 1.17, 0.0, 0.0, 0.0, 0.0, 1.69, 2.83, 3.49, 4.6, 4.25, 4.44, 4.17, 3.29, 2.42, 2.71, 3.11, 3.65, 2.83, 4.4, 5.95, 7.59, 7.68, 7.59, 10.73, 12.87, 11.62, 10.4, 8.03, 6.4, 4.58, 6.48, 11.76, 12.94, 12.45, 11.6, 11.09, 10.96, 10.8, 10.8, 11.12, 9.62, 9.7, 8.66, 8.73, -0.0, -3.11, -6.71, -8.93, 0.0, 6.95, 8.34, 7.76, 7.27, 7.18, 5.92, 6.63, 6.0, 4.55, 3.39, 8.94, 1.25, 1.33, -0.0, -0.0, -0.0, -0.0, -0.0, 0.0, 0.0, 0.0, 0.0, 0.0, -1.77, -1.77, -1.77, -3.1, -3.1, -4.52, -4.11, -4.11, -5.48, -5.04, -4.81, -4.73, -4.54, -4.01, -2.87, -1.68, 0.0, 0.0, 0.72, 1.42, 1.46, 2.08, 2.05, 2.65, 2.57, 2.4, 1.83, 0.6, -0.66, -1.2, 0.0, 1.28, 2.7, 2.82, 3.49, 3.92, 2.71, 1.63, 1.16, 1.18, 1.33, 1.54, 1.47, 1.47, 3.8, 6.32, 7.87, 6.17, 7.27, 6.95, 7.6, 6.79, 6.44, 3.8, 1.76, 3.04, 7.51, 10.17, 10.4, 9.48, 9.09, 9.09, 8.73, 9.09, 9.09, 8.24, 7.56, 6.45, 5.63, 3.68, -1.76, -0.0, 8.18, 10.14, 8.72, 8.03, 8.31, 7.48, 5.76, 4.6, 3.39, 2.49, 3.96, 2.91, 1.58, 6.64, -0.0, -0.0, -1.4, -0.0, -0.0, -0.0, 8.49, 8.05, 8.05, 0.0, 0.0, 0.0, -1.77, -1.77, -1.58, -3.1, -3.1, -4.52, -4.11, -4.24, -5.04, -5.04, -4.81, -4.6, -4.73, -3.24, -3.13, -1.88, -0.87, 0.0, 0.0, 0.73, 1.43, 2.14, 2.72, 2.72, 2.54, 1.86, 1.81, 1.21, 0.0, -0.73, -1.16, 0.0, 0.89, 2.83, 3.65, 2.42, 1.18, 0.0, 0.0, 0.0, 1.22, 1.33, 1.4, 3.15, 5.69, 6.44, 6.79, 6.01, 6.01, 5.1, 6.01, 4.83, 4.83, 1.67, 0.0, 3.68, 6.97, 8.12, 8.73, 7.27, 6.3, 5.21, 5.21, 5.53, 6.3, 6.58, 5.32, 3.36, 0.75, -3.96, -10.4, 10.84, 10.6, 10.04, 10.24, 9.48, 7.9, 7.12, 5.72, 4.01, 2.49, 1.6, 0.0, 0.0, 0.0, 0.0, -0.0, -0.0, -0.0, 5.37, 7.63, 8.94, 8.94, 8.24, 8.24, 0.0, 0.0, 0.0, -1.72, -1.72, -1.58, -3.1, -3.2, -2.81, -4.11, -4.24, -3.88, -4.0, -3.69, -3.79, -3.52, -3.28, -3.24, -1.98, -0.94, 0.0, 0.0, 0.0, 1.46, 2.08, 2.65, 1.92, 1.28, 1.28, 1.32, 0.68, 0.68, 0.0, -1.3, -0.81, 0.0, 0.93, 1.33, 1.28, 0.0, 0.0, 0.0, 0.0, 0.94, 1.33, 3.32, 6.32, 7.28, 6.79, 6.32, 5.36, 5.63, 5.86, 5.86, 4.2, 4.2, 2.7, 2.49, 5.0, 6.97, 7.9, 7.27, 5.46, 3.7, 3.7, 2.54, 4.0, 3.8, 4.2, 2.82, 0.0, -0.86, -2.32, 1.44, 8.22, 9.96, 10.43, 10.25, 9.49, 8.18, 7.13, 5.67, 4.06, 2.82, 1.68, 0.85, 0.0, 0.0, 3.8, 4.71, 4.2, 6.44, 7.06, 8.38, 10.28, 9.39, 9.26, 9.26, 0.0, 0.0, 0.0, -1.77, -1.53, -1.53, -3.1, -3.1, -2.89, -4.24, -4.24, -4.0, -4.0, -3.69, -3.69, -3.42, -3.28, -3.16, -2.19, -0.97, 0.0, -0.8, 0.0, 0.76, 2.21, 2.17, 0.75, 0.0, 0.0, 0.0, 0.0, 0.0, 0.0, -0.85, -1.77, -1.67, -1.75, -1.28, -1.33, -1.28, 0.0, 0.0, 0.0, 1.4, 2.83, 5.86, 6.98, 6.98, 5.86, 5.86, 5.86, 6.14, 6.14, 5.46, 4.4, 3.87, 3.87, 4.6, 6.24, 7.27, 7.27, 5.98, 3.87, 2.58, 2.28, 1.67, 0.89, 0.0, 0.0, 0.0, -1.25, 0.0, 0.81, 4.16, 7.53, 9.12, 8.86, 8.16, 7.2, 6.47, 5.73, 4.87, 3.87, 2.21, 1.84, 0.0, -1.26, -8.49, -0.0, 6.17, 7.87, 6.79, 6.52, 8.3, 10.28, 9.83, 9.39, 9.39, 0.0, 0.0, 0.0, -1.58, -1.53, -1.53, -3.1, -3.1, -2.89, -4.24, -4.24, -4.0, -4.12, -3.79, -3.69, -3.33, -3.32, -2.38, -1.11, 0.0, -0.87, -2.51, -2.72, -1.27, 0.0, 0.0, -0.81, -1.06, -1.02, -0.85, -0.92, 0.0, 0.0, 0.0, -1.11, -2.45, -3.99, -3.61, -2.39, -1.23, 0.0, 0.0, 1.28, 2.7, 5.46, 6.3, 6.3, 5.21, 5.21, 4.2, 5.46, 5.46, 5.46, 5.46, 4.88, 5.1, 4.88, 6.24, 6.5, 5.92, 4.8, 3.61, 2.39, 1.67, 1.75, 0.85, 0.0, 0.0, -0.82, -1.2, 0.0, 1.73, 3.51, 5.06, 5.04, 4.98, 4.19, 3.13, 3.13, 3.3, 2.41, 2.33, 2.45, 2.15, 1.76, 1.84, 1.02, 1.11, 7.59, 8.58, 7.87, 6.64, 6.32, 7.44, 9.33, 9.83, 10.28, 10.28, 0.0, 0.0, 0.0, -1.53, -1.53, -1.53, -3.1, -3.1, -2.89, -4.24, -4.24, -4.0, -4.12, -3.79, -3.79, -4.81, -3.58, -3.88, -3.39, -1.38, -3.56, -3.9, -6.34, -6.71, -5.94, -4.26, -3.24, -1.88, -1.0, 0.0, 0.0, 1.02, 1.93, 2.04, 1.13, 0.0, -2.54, -3.06, -1.56, -0.54, 0.0, 1.16, 2.28, 3.49, 4.69, 4.8, 4.88, 3.87, 3.7, 4.2, 4.2, 4.2, 4.2, 4.2, 4.34, 4.56, 5.69, 5.64, 5.9, 4.8, 3.61, 2.39, 2.39, 1.16, 0.85, 0.85, 0.0, 0.0, 0.0, 0.0, 0.0, 1.6, 2.37, 2.38, 1.63, 0.0, -0.8, -1.64, -0.8, 0.0, 0.0, 0.77, 0.81, 1.64, 1.69, 1.43, 1.43, 1.39, 3.92, 8.05, 9.83, 10.79, 9.67, 9.33, 9.39, 10.28, 10.28, 10.28, 0.0, 0.0, 0.0, -1.53, -1.53, -1.53, -3.01, -3.1, -2.89, -4.37, -4.24, -4.0, -4.12, -3.79, -3.79, -3.52, -3.32, -3.58, -4.1, -5.19, -5.0, -4.86, -5.23, -6.19, -6.31, -4.79, -1.78, -0.94, 0.0, 0.94, 1.87, 2.72, 2.72, 2.72, 2.65, 1.93, 0.0, 0.0, 0.0, 0.0, 0.55, 1.15, 2.25, 3.45, 4.2, 4.8, 3.87, 3.87, 2.58, 2.58, 2.83, 2.83, 4.0, 4.2, 5.46, 5.36, 6.31, 6.42, 5.69, 3.87, 2.39, 2.39, 1.22, 0.0, 0.0, 0.0, 0.0, 0.0, 0.0, 0.83, 0.81, 1.59, 2.42, 1.6, 0.0, -2.4, -5.81, -5.56, -5.51, -3.95, -2.35, -0.77, 0.0, 0.73, 0.82, 0.82, 0.85, 1.47, 2.17, 3.8, 6.87, 12.04, 12.35, 9.13, 8.4, 8.63, 9.11, 9.11, 0.0, 0.0, 0.0, -1.53, -1.53, -1.53, -3.01, -3.1, -2.89, -2.98, -4.37, -4.0, -4.0, -3.79, -3.79, -3.52, -4.47, -4.34, -4.96, -6.14, -4.79, -2.05, -1.15, -2.28, -2.25, -2.09, -0.97, 0.0, 0.83, 1.69, 1.73, 2.59, 2.59, 2.59, 2.52, 1.69, 1.56, 0.77, 0.0, 0.0, 0.0, 0.58, 1.63, 2.28, 3.52, 4.05, 3.61, 2.39, 1.33, 1.26, 2.69, 2.69, 2.69, 4.0, 5.59, 6.95, 6.95, 7.59, 5.69, 3.87, 2.57, 1.68, 0.85, 0.0, 0.0, 0.0, 0.0, 0.0, 0.0, 1.11, 2.37, 4.66, 5.76, 3.99, -1.6, -4.38, -6.99, -8.28, -7.82, -7.25, -5.73, -3.78, -0.81, 0.0, 0.82, 0.85, 0.89, 1.84, 3.32, 4.2, 8.41, 9.97, 9.67, 7.15, 6.79, 7.03, 8.17, 8.17, 0.0, 0.0, 0.0, 0.0, -1.53, -1.53, -3.1, -2.81, -2.89, -2.98, -4.37, -4.0, -4.12, -3.79, -3.79, -3.52, -4.47, -4.34, -5.11, -5.23, -3.89, -1.88, -0.89, 0.0, 0.0, 0.0, 0.0, 0.0, 0.0, 0.77, 0.79, 1.57, 1.57, 1.57, 1.57, 1.57, 1.6, 0.74, 0.68, 0.0, 0.6, 0.6, 1.22, 1.75, 2.89, 3.4, 3.45, 1.16, 0.0, 1.4, 1.32, 3.15, 4.37, 4.37, 5.59, 6.32, 7.13, 7.27, 6.24, 4.34, 2.83, 0.89, 0.0, 0.0, 0.0, 0.0, 0.0, 0.0, 0.0, 2.47, 5.0, 6.08, 4.94, 3.33, 2.19, 0.0, -1.58, -4.62, -7.49, -8.4, -6.77, -5.6, -3.19, -1.58, 0.0, 0.85, 2.7, 3.81, 6.17, 8.75, 9.88, 9.16, 8.03, 6.68, 6.7, 6.7, 7.28, 7.28, 0.0, 0.0, 0.0, 0.0, -1.53, -1.53, -1.38, -2.81, -2.89, -2.98, -4.37, -4.12, -4.12, -3.79, -4.95, -3.52, -4.6, -4.05, -4.3, -4.15, -4.01, -2.95, -1.88, -1.63, -0.84, 0.0, 0.0, 0.0, 0.0, 0.0, 0.0, 0.77, 0.77, 0.77, 0.77, 0.8, 1.6, 1.51, 0.7, 0.61, 0.57, 0.58, 1.28, 2.02, 2.63, 2.6, 1.22, 1.16, 1.26, 2.83, 2.83, 3.8, 4.37, 4.37, 5.1, 6.01, 5.69, 6.32, 6.58, 5.1, 2.69, 0.94, 0.85, 0.85, 0.89, 0.85, 0.85, 1.09, 2.57, 4.4, 5.29, 1.13, 2.42, 3.99, 5.51, 5.5, 4.28, 2.45, 0.0, -3.47, -5.43, -5.3, -5.0, -3.46, -0.82, 0.81, 3.81, 5.63, 6.18, 7.02, 7.41, 7.33, 6.32, 6.01, 6.35, 6.7, 7.67, 7.67, 0.0, 0.0, 0.0, 0.0, 0.0, -1.53, -1.38, -2.81, -2.89, -2.98, -4.37, -4.0, -4.12, -3.79, -4.95, -4.6, -3.52, -3.18, -4.18, -4.15, -3.16, -3.13, -3.13, -1.93, -1.73, -0.82, -0.85, 0.0, 0.0, 0.0, 0.0, 0.0, 0.0, 0.0, 0.77, 0.8, 0.8, 0.78, 1.5, 1.26, 1.14, 1.15, 1.22, 2.02, 2.21, 2.28, 0.62, 1.2, 1.87, 2.76, 2.63, 2.82, 2.69, 2.99, 4.37, 5.1, 5.1, 3.91, 3.32, 4.2, 3.87, 2.69, 1.94, 2.04, 1.84, 1.84, 2.47, 3.49, 5.9, 4.92, 2.51, 0.0, 1.1, 3.96, 5.6, 6.42, 5.8, 4.88, 2.09, 0.0, -2.81, -4.49, -4.68, -3.25, 0.0, 1.75, 4.5, 5.82, 6.32, 6.68, 6.95, 6.64, 5.94, 5.89, 6.01, 6.68, 7.32, 7.32, 0.0, 0.0, 0.0, 0.0, 0.0, -1.38, -1.38, -2.81, -2.89, -2.89, -4.0, -4.0, -4.12, -3.79, -4.95, -4.6, -3.52, -3.28, -3.28, -3.07, -3.07, -2.97, -3.13, -3.13, -1.93, -1.78, -0.85, -0.89, 0.0, 0.0, 0.0, 0.0, 0.0, 0.0, 0.0, 0.0, 0.0, 0.8, 0.82, 1.4, 1.23, 1.15, 1.81, 1.93, 2.15, 2.15, 2.06, 1.78, 1.87, 1.84, 1.97, 1.29, 1.39, 1.4, 3.15, 3.15, 3.6, 1.95, 1.58, 3.32, 3.87, 3.61, 2.57, 2.04, 2.04, 2.57, 4.99, 6.59, 6.42, 4.25, 2.6, 0.0, 0.79, 2.45, 4.79, 6.52, 6.44, 4.34, 1.56, 0.0, -2.92, -5.5, -4.58, -1.18, 1.84, 3.99, 5.44, 6.45, 6.79, 6.35, 6.64, 6.58, 5.86, 5.94, 6.32, 7.02, 7.33, 7.33, 0.0, 0.0, 0.0, 0.0, 0.0, -1.38, -1.38, -1.38, -2.81, -2.89, -4.0, -4.0, -4.12, -3.69, -3.79, -4.6, -3.52, -3.28, -3.28, -3.28, -3.07, -3.07, -2.97, -3.05, -3.05, -1.93, -1.78, -0.87, -0.89, 0.0, 0.0, 0.0, 0.0, 0.0, 0.0, 0.0, 0.0, 0.0, 0.92, 0.87, 1.53, 1.41, 1.86, 1.81, 2.65, 2.02, 2.02, 1.84, 1.18, 1.18, 0.59, 0.64, 0.0, 0.63, 0.89, 1.84, 1.58, 1.49, 2.26, 2.09, 2.58, 2.47, 2.33, 0.89, 1.39, 4.2, 7.06, 6.83, 5.06, 3.25, 1.7, 0.0, 0.0, 0.81, 2.43, 3.98, 3.18, 1.39, 0.0, -1.69, -4.36, -7.93, 0.0, 4.8, 5.69, 5.06, 6.18, 6.45, 6.01, 6.32, 6.32, 6.58, 6.83, 6.53, 6.58, 6.58, 6.58, 6.58, 0.0, 0.0, 0.0, 0.0, 0.0, -1.38, -1.38, -1.38, -2.81, -2.56, -3.88, -4.0, -4.0, -3.69, -3.69, -3.42, -3.52, -3.28, -3.28, -3.28, -3.07, -3.07, -3.07, -2.88, -2.97, -2.0, -1.88, -1.88, -1.83, -0.92, -0.87, -0.83, -0.85, 0.0, 0.0, 0.0, 0.0, 0.0, 0.0, 0.89, 0.82, 1.51, 2.06, 2.39, 2.49, 2.39, 1.89, 1.22, 0.56, 0.0, 0.0, 0.0, 0.0, 0.0, 0.0, 0.0, 0.0, 0.0, 1.18, 2.09, 1.0, 0.81, 0.0, 0.85, 3.3, 7.15, 8.02, 6.31, 3.65, 1.69, 0.86, 0.0, -0.83, -0.83, -0.81, -0.79, -1.6, -0.78, -1.65, -2.31, -6.01, -11.99, 13.59, 9.3, 5.86, 6.01, 5.37, 6.01, 5.59, 5.89, 6.53, 6.7, 6.7, 6.51, 6.51, 6.51, 5.78, 5.78, 0.0, 0.0, 0.0, 0.0, 0.0, 0.0, -1.38, -1.42, -2.81, -2.81, -3.88, -4.0, -4.12, -3.79, -3.79, -3.69, -3.42, -3.42, -3.18, -3.18, -3.28, -3.07, -3.07, -3.07, -2.88, -1.94, -1.94, -2.0, -1.93, -1.83, -0.87, -0.87, -0.87, -0.83, -0.87, 0.0, 0.0, 0.0, 0.0, 0.97, 0.92, 0.79, 1.54, 0.89, 2.47, 2.97, 1.86, 0.0, -1.54, 0.0, 0.0, -0.59, -0.61, -0.62, -1.1, -1.2, -1.25, 0.0, 1.18, 1.07, 0.0, 0.0, 0.0, 1.04, 5.45, 8.12, 8.02, 5.9, 3.65, 0.85, 0.0, 0.0, -1.55, -2.39, -4.76, -5.67, -5.56, -3.13, -1.61, -0.82, -0.83, 0.0, 5.81, 6.2, 4.2, 4.37, 4.28, 5.06, 5.52, 5.76, 6.57, 6.2, 5.77, 6.71, 6.44, 5.95, 5.46, 5.46, 0.0, 0.0, 0.0, 0.0, 0.0, 0.0, -1.38, -1.42, -2.81, -2.56, -2.56, -4.0, -4.0, -3.79, -3.9, -3.79, -3.42, -3.42, -3.18, -3.18, -3.28, -3.07, -3.07, -3.07, -3.07, -2.07, -1.89, -1.94, -1.88, -1.88, -1.78, -1.68, -1.68, -0.85, -0.87, -0.92, 0.0, 0.0, 0.0, 0.0, 0.0, 0.84, 0.78, 0.0, 0.73, 0.89, 0.0, -0.84, -2.2, -2.45, -1.11, -0.89, -1.29, -1.25, -1.2, -1.76, -1.4, -0.71, 0.0, 0.0, 0.0, -0.81, 0.0, 3.3, 6.64, 7.13, 6.95, 6.24, 3.49, 0.0, -0.86, -0.8, -0.81, -1.62, -4.81, -6.24, -6.24, -4.07, -1.58, 0.0, 0.0, 0.56, 1.36, 2.95, 3.9, 4.39, 4.84, 5.1, 5.1, 5.68, 5.68, 5.6, 5.29, 6.33, 5.54, 5.09, 4.31, 4.31, 0.0, 0.0, 0.0, 0.0, 0.0, 0.0, -1.38, -1.3, -2.56, -2.64, -2.64, -2.56, -4.0, -3.69, -3.79, -3.79, -3.52, -3.52, -3.52, -3.28, -3.28, -3.28, -3.28, -3.07, -3.07, -2.07, -2.01, -1.83, -1.89, -1.83, -1.78, -1.73, -1.73, -1.73, -0.89, -0.89, -0.97, 0.0, 0.0, 0.0, 0.0, 0.0, 0.0, 0.0, 0.0, -1.84, -1.83, -0.89, 0.0, 0.0, 0.0, 0.0, 0.0, -1.32, -1.14, -1.16, -2.26, -1.65, -0.94, 0.0, -0.79, -0.85, 0.85, 4.74, 5.2, 4.21, 3.8, 3.65, 2.82, 0.0, 0.0, 0.0, 0.0, 0.0, -1.6, -4.85, -5.67, -4.76, -2.35, -0.78, 0.0, 0.0, 1.14, 2.35, 2.92, 3.47, 4.17, 4.95, 5.11, 4.94, 5.2, 4.31, 4.31, 3.53, 4.32, 4.4, 3.46, 3.46, 0.0, 0.0, 0.0, 0.0, 0.0, 0.0, -1.25, -1.3, -1.3, -2.64, -2.64, -2.64, -3.88, -3.79, -3.79, -3.79, -3.52, -3.62, -3.62, -3.62, -3.37, -3.37, -3.28, -3.07, -3.07, -3.07, -2.01, -1.89, -1.34, -1.83, -2.72, -2.8, -2.8, -1.83, -1.83, -0.95, -0.95, -0.97, 0.0, 0.0, 0.0, 0.0, 0.0, 0.0, -0.73, -2.19, -2.25, -0.87, 0.0, 0.89, 0.79, 0.62, 0.0, 0.0, 0.0, -0.55, -1.3, -1.96, -2.09, -1.73, -0.83, 0.0, 2.69, 3.45, 3.14, 2.06, 0.0, 0.0, 0.0, 0.0, 0.0, 0.93, 1.25, 1.17, 0.0, -2.36, -4.76, -3.96, -3.14, -2.12, -0.73, 0.0, 1.42, 1.77, 2.35, 2.92, 3.47, 4.03, 4.76, 4.31, 3.53, 3.53, 2.87, 2.18, 2.93, 2.88, 2.95, 2.95, 0.0, 0.0, 0.0, 0.0, 0.0, 0.0, -1.25, -1.3, -1.3, -2.64, -2.64, -2.64, -2.64, -3.88, -3.79, -3.79, -3.79, -3.79, -3.52, -3.62, -3.62, -3.37, -3.37, -3.28, -2.98, -2.98, -2.98, -2.81, -2.72, -3.52, -2.72, -1.94, -2.0, -2.0, -1.0, -1.0, -1.0, -1.03, -1.03, -1.03, 0.0, 0.0, 0.0, 0.0, -0.67, -1.44, -1.61, -0.81, 0.0, 0.0, 0.0, 0.0, 0.0, 0.0, 0.0, 0.0, 0.0, -0.76, -0.89, -0.89, 0.0, 0.94, 1.47, 1.95, 1.05, 1.0, 0.0, -1.05, 0.0, 0.0, 0.93, 1.76, 0.89, 0.0, 0.0, 0.0, -1.54, -1.71, -1.5, -0.72, 0.0, 0.71, 1.42, 1.42, 1.77, 2.35, 3.01, 3.61, 3.28, 3.14, 2.45, 2.1, 1.41, 1.41, 1.44, 1.64, 1.45, 1.45, 0.0, 0.0, 0.0, 0.0, 0.0, 0.0, -1.25, -1.3, -1.3, -2.64, -2.64, -2.72, -2.64, -3.88, -3.69, -3.79, -3.79, -3.79, -3.52, -3.62, -3.62, -3.47, -3.37, -3.37, -2.98, -2.98, -2.98, -2.89, -3.8, -2.72, -1.83, -1.89, -1.04, -1.04, -1.0, -1.0, -1.07, -1.07, -1.1, -1.1, -1.1, 0.0, 0.0, 0.0, 0.0, -0.72, -1.55, -1.72, -1.62, -1.5, -1.22, -0.59, -0.59, -0.59, -0.57, -0.55, -0.61, -0.58, -0.61, -0.61, 0.0, 0.0, 0.0, 0.0, 0.0, 0.0, 0.0, 0.0, 0.0, 0.0, 0.89, 1.28, 0.0, -0.79, -0.81, 0.8, 1.58, 0.79, 0.0, 0.0, 0.0, 0.0, 0.0, 0.73, 0.72, 1.2, 1.77, 1.85, 1.48, 1.46, 0.75, 0.8, 0.73, 0.0, 0.0, 0.7, 0.71, 0.71, 0.0, 0.0, 0.0, 0.0, 0.0, 0.0, -1.25, -1.3, -1.34, -2.64, -2.72, -2.72, -2.72, -3.88, -3.58, -3.69, -3.69, -3.69, -3.69, -3.52, -3.62, -3.62, -3.37, -3.37, -3.28, -2.98, -2.98, -2.89, -2.89, -2.8, -1.89, -1.89, -0.95, -0.95, -0.98, -0.98, -1.07, -1.07, -1.1, -1.1, -1.1, 0.0, 0.0, 0.0, 0.0, -0.72, -0.78, -1.66, -2.47, -2.39, -1.98, -1.89, -1.24, -1.18, -1.2, -1.16, -1.18, -1.12, -1.14, -0.59, 0.0, 0.0, 0.0, 0.0, 0.0, 0.0, 0.0, 0.0, 0.0, 0.0, 0.82, 1.28, 0.0, -0.79, -0.78, 0.79, 3.28, 3.18, 1.6, 0.0, -0.69, -1.42, -0.71, 0.0, 0.0, 0.0, 0.67, 0.74, 0.0, 0.0, 0.0, 0.0, 0.0, 0.0, 0.0, 0.0, 0.0, 0.0, 0.0, 0.0, 0.0, 0.0, 0.0, 0.0, -1.3, -1.3, -1.34, -1.34, -2.72, -2.72, -2.72, -3.88, -3.88, -4.0, -3.69, -3.69, -3.69, -3.79, -3.52, -3.62, -3.37, -3.37, -3.28, -3.18, -2.98, -2.89, -2.89, -2.98, -2.01, -1.89, -1.83, -1.83, -1.83, -0.95, -0.98, -1.04, -1.07, -1.07, -1.15, 0.0, 0.0, 0.0, 0.0, -0.72, -0.75, -1.61, -2.63, -2.39, -2.82, -2.65, -2.53, -1.84, -1.78, -1.69, -1.09, -1.1, -1.12, -1.16, -1.16, 0.0, 0.0, 0.0, 0.0, 0.0, 1.0, 0.94, 0.0, 0.0, 0.0, 0.0, 1.21, 0.0, 0.0, 0.0, 1.6, 2.36, 1.55, 0.0, -1.43, -2.15, -1.42, -1.45, -0.68, 0.0, 0.0, 0.0, 0.0, 0.0, 0.0, 0.0, 0.0, 0.0, 0.0, 0.0, 0.0, 0.0, 0.0, 0.0, 0.0, 0.0, 0.0, 0.0, -1.3, -1.3, -1.34, -1.34, -2.72, -2.72, -2.72, -4.0, -3.88, -3.88, -4.0, -3.69, -3.69, -3.79, -3.52, -3.52, -3.62, -3.37, -3.28, -3.18, -3.18, -3.09, -2.89, -2.98, -2.01, -2.01, -1.95, -1.83, -1.83, -1.83, -1.83, -1.01, -1.04, -1.07, -1.15, -1.15, 0.0, 0.0, 0.0, 0.0, -1.44, -2.31, -3.34, -3.34, -3.11, -2.88, -2.65, -2.7, -2.46, -1.69, -1.71, -1.73, -1.8, -1.14, -1.16, -1.3, 0.0, 0.0, 0.0, 0.0, 0.0, 0.0, 0.0, 0.0, 0.0, 0.0, 1.25, 1.13, 0.0, -0.79, -0.82, -0.79, -0.8, -1.5, -0.76, -0.7, -0.7, -0.72, 0.0, 0.0, 0.0, 0.0, 0.0, 0.0, 0.0, 0.0, 0.0, 0.0, 0.0, 0.0, 0.0, 0.0, 0.0, 0.0, 0.0, 0.0, 0.0, 0.0, -1.3, -1.3, -1.34, -1.34, -2.72, -2.72, -2.72, -4.0, -4.0, -3.88, -3.88, -4.0, -3.69, -3.79, -3.79, -3.52, -3.52, -3.62, -3.28, -3.18, -3.09, -3.09, -3.09, -2.89, -2.98, -2.89, -1.95, -1.95, -1.95, -1.95, -1.89, -2.01, -2.01, -2.07, -2.21, -1.15, -1.23, 0.0, 0.0, 0.0, -1.36, -3.04, -4.24, -4.36, -4.21, -3.91, -3.61, -3.31, -2.46, -2.33, -2.23, -1.84, -1.65, -1.67, -1.7, -1.3, 0.0, 0.0, 0.0, 0.0, 0.0, 0.0, 0.0, 0.0, 0.0, 0.0, 0.0, 0.81, 0.8, 0.0, -1.58, -3.07, -2.79, -2.22, 0.0, 0.0, 0.0, 0.0, 0.0, 0.0, 0.0, 0.0, 0.0, 0.0, 0.0, 0.0, 0.0, 0.0, 0.0, 0.0, 0.71, 0.0, 0.0, 0.0, 0.0, 0.0, 0.0, 0.0, -1.3, -1.3, -1.34, -1.34, -2.72, -2.72, -2.72, -2.72, -4.0, -3.88, -3.88, -2.64, -2.72, -3.69, -3.79, -3.52, -3.52, -3.52, -3.28, -3.18, -3.09, -3.09, -3.0, -3.0, -2.89, -2.89, -2.89, -2.89, -2.81, -2.89, -2.81, -1.89, -2.01, -2.15, -2.21, -2.38, -2.43, -2.37, -1.07, -1.41, -2.41, -4.52, -5.14, -5.33, -4.65, -4.33, -3.85, -3.46, -3.01, -2.33, -2.37, -2.26, -2.29, -2.14, -1.67, -1.7, -0.67, 0.0, 0.0, -1.32, -0.94, -1.0, 0.0, 0.0, 0.0, 0.0, 0.0, 0.0, 2.31, 2.37, 0.0, -2.37, -3.22, -2.19, -1.47, -0.7, 0.0, 0.0, -0.7, -0.72, -0.69, -0.75, -0.75, -0.72, 0.0, 0.0, 0.0, 0.0, 0.0, 0.0, 0.0, 0.71, 0.0, 0.0, 0.0, 0.0, 0.0, 0.0, -1.25, -1.3, -1.3, -1.34, -2.64, -2.64, -2.72, -2.72, -2.64, -2.64, -2.64, -2.64, -2.64, -2.5, -3.69, -3.69, -3.42, -3.52, -3.52, -3.28, -3.09, -3.0, -3.0, -3.0, -3.0, -2.89, -2.89, -2.89, -2.81, -2.81, -2.81, -2.9, -3.0, -3.09, -3.09, -3.42, -3.47, -3.29, -4.47, -3.81, -3.69, -4.6, -5.04, -5.31, -4.74, -4.28, -3.39, -3.78, -3.21, -3.05, -2.89, -2.23, -2.92, -2.44, -2.32, -2.36, -1.49, -1.4, -1.49, 0.0, -0.94, -1.4, 0.0, 0.0, 0.0, 0.0, 0.0, 0.0, 1.25, 3.42, 2.45, 0.0, -2.33, -2.37, -2.14, -1.46, -1.48, -1.43, -1.43, -1.46, -1.5, -1.5, -1.54, -1.54, -1.54, -1.54, -0.77, -0.83, 0.0, 0.0, 0.0, 0.0, 0.0, 0.0, 0.0, 0.0, 0.0, 0.0, -1.25, -1.3, -1.3, -2.56, -2.64, -2.64, -2.64, -2.64, -2.64, -2.64, -2.64, -2.64, -2.64, -2.64, -2.5, -3.69, -3.42, -3.42, -3.42, -3.42, -3.09, -3.0, -3.0, -2.9, -2.9, -2.9, -2.81, -2.81, -2.81, -2.72, -2.9, -2.81, -2.9, -3.0, -3.0, -3.22, -3.12, -3.96, -5.06, -5.67, -3.58, -2.15, -2.56, -2.72, -2.63, -2.37, -2.83, -2.47, -2.83, -2.69, -2.89, -2.89, -2.89, -2.92, -2.96, -3.0, -1.84, -1.49, 0.0, 0.0, 0.0, 0.0, 0.0, 0.0, 0.0, 0.0, -1.28, -0.89, -1.28, 0.0, 1.6, 2.42, 0.87, 0.0, -0.8, -0.77, -0.71, -0.74, -0.74, -0.8, -0.77, -0.77, -1.54, -1.54, -1.54, -1.54, -1.54, -0.77, -0.8, 0.0, 0.0, 0.0, 0.0, 0.0, 0.0, 0.0, 0.0, 0.0, -1.25, -1.25, -1.25, -2.56, -2.56, -2.64, -2.64, -2.64, -2.64, -2.64, -2.64, -2.64, -2.64, -2.64, -2.5, -3.69, -3.69, -3.42, -3.42, -3.42, -3.32, -3.0, -2.9, -2.9, -2.81, -2.81, -2.81, -3.81, -3.93, -2.81, -2.81, -2.81, -2.81, -3.02, -3.12, -3.12, -3.02, -3.55, -3.91, -4.1, -3.69, -2.02, -1.03, -1.04, -1.09, -1.01, -0.93, -1.84, -1.75, -2.35, -2.54, -2.89, -3.37, -3.37, -3.4, -2.96, -2.8, -2.4, 0.0, 0.0, 0.0, 0.0, 0.89, 0.94, 0.0, -0.85, -1.68, -2.49, -2.51, -2.53, 0.0, 3.12, 4.04, 3.49, 1.94, 0.92, 0.89, 0.0, 0.0, 0.0, 0.0, 0.0, -0.75, -0.72, -0.77, -1.54, -1.54, -1.54, -0.8, -0.76, -0.76, -0.76, 0.0, 0.0, 0.0, 0.0, 0.0, 0.0, -1.25, -1.25, -1.3, -2.56, -2.56, -2.64, -2.64, -2.64, -2.64, -2.64, -2.64, -2.64, -2.64, -2.64, -2.72, -3.69, -3.69, -3.42, -3.42, -3.42, -3.32, -3.0, -2.9, -3.68, -3.68, -3.68, -3.68, -3.68, -3.68, -3.68, -3.56, -2.81, -3.02, -3.02, -3.02, -3.02, -2.92, -3.42, -3.07, -3.32, -2.81, -2.81, -1.9, -1.84, -0.93, -0.85, 0.0, 0.0, -0.85, -1.52, -2.12, -2.54, -2.73, -3.37, -3.6, -3.4, -2.96, -2.32, -1.32, 0.0, 1.58, 1.01, 1.84, 0.94, 0.0, -1.84, -2.7, -2.49, -2.41, -1.7, 0.0, 1.63, 3.93, 4.88, 6.18, 5.65, 3.05, 0.92, 0.0, 0.0, 0.0, 0.0, -0.74, -0.75, -1.04, -1.48, -1.54, -1.64, -1.58, -1.52, -1.52, -1.52, 0.0, 0.0, 0.0, 0.0, 0.0, 0.0, -1.21, -1.25, -1.3, -2.56, -2.56, -2.56, -2.64, -2.64, -2.64, -2.89, -2.89, -2.64, -2.64, -2.64, -3.88, -3.69, -3.69, -3.69, -3.42, -3.42, -3.32, -3.22, -3.81, -3.81, -3.68, -3.56, -3.56, -3.56, -3.56, -3.56, -3.56, -3.81, -3.02, -2.92, -2.92, -2.92, -2.92, -3.42, -3.07, -3.32, -3.56, -2.72, -2.92, -1.84, -1.7, -0.82, -0.74, -0.71, 0.0, -0.73, -1.44, -2.12, -2.4, -2.92, -3.4, -3.4, -2.96, -2.29, -1.14, 0.0, 0.0, 0.0, 0.0, 0.0, -1.75, -1.84, -1.75, -1.76, -1.69, -0.89, 0.0, 0.0, 2.35, 4.07, 6.42, 5.8, 4.76, 2.59, 0.85, 0.0, -0.7, -1.4, -1.61, -2.13, -2.08, -2.41, -2.34, -2.34, -2.34, -2.41, -2.41, -2.41, 0.0, 0.0, 0.0, 0.0, 0.0, 0.0, -1.21, -1.25, -1.25, -2.56, -2.56, -2.56, -2.64, -2.64, -2.89, -2.89, -2.89, -2.89, -2.64, -2.64, -3.88, -3.69, -3.69, -3.69, -3.42, -3.42, -4.34, -4.21, -4.08, -3.81, -3.68, -3.56, -3.56, -3.44, -3.44, -3.68, -3.68, -3.68, -2.92, -2.92, -2.92, -2.92, -2.92, -3.55, -3.29, -3.32, -2.81, -2.81, -2.81, -1.77, -1.76, -1.62, -0.74, -0.71, -0.67, -0.67, -0.67, -1.25, -1.44, -2.0, -2.44, -2.96, -2.77, -2.32, -1.16, 0.0, 0.0, -1.32, -1.4, -1.95, -1.84, -1.84, -1.94, -1.84, -0.93, 0.0, 0.0, 0.0, 1.61, 3.14, 4.04, 4.79, 5.29, 4.85, 2.47, 0.0, -0.7, -2.2, -3.14, -3.11, -3.19, -2.34, -2.34, -2.25, -2.25, -2.31, -2.31, -2.31, 0.0, 0.0, 0.0, 0.0, 0.0, 0.0, -1.25, -1.25, -1.25, -1.25, -2.56, -2.56, -2.81, -2.89, -2.89, -2.89, -2.89, -2.89, -2.64, -2.56, -3.76, -3.88, -3.69, -3.69, -3.69, -3.42, -4.34, -4.21, -4.08, -4.08, -3.94, -3.94, -3.81, -3.68, -3.68, -3.55, -3.55, -3.68, -3.04, -3.04, -3.04, -2.81, -3.68, -3.55, -3.29, -3.55, -2.81, -2.81, -2.93, -2.71, -1.76, -1.84, -1.54, -1.47, -0.67, -0.63, -0.63, -1.25, -1.25, -1.36, -2.0, -2.29, -2.32, -2.18, -1.73, -1.58, -1.49, -1.25, -1.32, -1.95, -0.99, -0.94, -0.89, -0.93, -0.89, -0.85, 0.0, 0.0, 1.71, 2.62, 2.47, 3.13, 4.79, 6.46, 4.96, 1.54, 0.0, -2.81, -5.02, -4.84, -4.75, -3.91, -3.29, -3.16, -3.16, -3.02, -3.02, -3.02, 0.0, 0.0, 0.0, 0.0, 0.0, 0.0, -1.25, -1.25, -1.25, -1.3, -2.56, -2.81, -2.89, -2.89, -2.89, -2.89, -2.89, -2.89, -2.64, -3.88, -3.88, -3.88, -3.69, -3.69, -3.69, -4.34, -4.34, -4.21, -4.08, -3.94, -3.94, -3.94, -3.81, -3.68, -3.68, -3.55, -3.55, -3.55, -3.82, -3.04, -3.04, -3.96, -3.68, -3.55, -3.42, -3.68, -2.92, -3.04, -2.82, -2.6, -1.84, -1.76, -1.76, -1.68, -1.4, -1.32, -1.25, -1.18, -1.18, -1.25, -2.0, -2.49, -2.36, -2.4, -2.44, -3.0, -1.84, -0.89, -0.94, -1.84, -1.94, -1.84, -1.84, -1.84, -0.85, -0.89, 0.0, 0.0, 0.86, 1.64, 1.65, 2.47, 3.95, 5.76, 5.38, 3.06, -1.38, -3.68, -5.77, -6.53, -5.77, -5.51, -4.68, -3.85, -3.69, -3.11, -3.11, -3.11, 0.0, 0.0, 0.0, 0.0, 0.0, 0.0, -1.25, -1.25, -1.25, -1.3, -2.81, -2.81, -2.89, -2.89, -2.89, -2.89, -2.89, -2.89, -3.88, -3.88, -3.88, -3.88, -4.0, -3.69, -3.58, -4.66, -4.34, -4.21, -4.08, -4.08, -3.94, -3.94, -3.81, -3.68, -3.68, -3.55, -3.55, -3.82, -3.82, -3.82, -3.82, -3.82, -3.55, -3.55, -3.55, -3.68, -2.92, -3.04, -2.82, -2.6, -1.84, -1.76, -1.76, -2.17, -2.06, -1.95, -1.81, -1.71, -1.73, -1.73, -1.88, -1.65, -2.36, -2.4, -2.44, -2.8, -2.8, -1.84, -1.96, -1.95, -2.69, -2.83, -2.7, -1.93, -1.84, -0.93, 0.0, 0.0, 0.0, 0.86, 0.86, 1.77, 2.54, 3.2, 3.35, 0.71, 0.0, -2.15, -5.04, -6.51, -7.15, -7.15, -5.86, -4.8, -4.07, -3.21, -3.21, -3.21, 0.0, 0.0, 0.0, 0.0, 0.0, 0.0, -1.21, -1.25, -1.25, -1.42, -2.81, -2.89, -2.89, -2.89, -2.89, -2.89, -2.89, -4.24, -3.88, -3.88, -3.88, -3.88, -3.88, -3.58, -4.66, -4.66, -4.66, -4.21, -4.08, -4.08, -3.94, -3.94, -3.81, -3.81, -3.68, -3.55, -3.55, -3.68, -3.68, -3.68, -3.82, -3.82, -3.82, -3.42, -3.55, -3.68, -3.14, -3.04, -3.18, -2.94, -1.84, -2.59, -2.59, -2.17, -2.06, -1.81, -1.81, -1.71, -1.71, -1.73, -1.73, -2.29, -2.32, -2.84, -3.12, -3.12, -3.0, -2.8, -2.64, -2.82, -2.67, -3.8, -3.81, -4.78, -2.83, -1.84, -0.98, 0.0, 0.0, 0.0, 0.0, 0.0, 0.0, 0.0, 0.0, 0.0, 0.0, -1.39, -2.23, -4.71, -6.64, -7.96, -7.18, -6.42, -4.83, -4.12, -4.12, -4.12, 0.0, 0.0, 0.0, 0.0, 0.0, -1.17, -1.21, -1.25, -1.38, -1.42, -2.81, -2.89, -2.89, -2.89, -2.89, -2.89, -4.24, -4.24, -3.88, -3.88, -3.88, -3.88, -3.88, -3.88, -4.66, -4.66, -4.52, -4.52, -4.38, -3.94, -3.94, -4.1, -4.1, -4.1, -3.96, -3.82, -3.82, -3.68, -3.68, -3.68, -3.68, -3.68, -3.68, -3.68, -3.68, -3.68, -2.93, -2.93, -3.18, -2.94, -2.82, -2.71, -2.59, -2.97, -2.83, -2.5, -2.37, -2.37, -2.23, -2.4, -2.26, -2.29, -2.8, -2.82, -3.08, -3.78, -3.72, -3.72, -2.64, -2.82, -2.99, -3.6, -4.5, -5.36, -3.99, -2.97, -1.84, -0.98, -0.93, -0.89, -0.86, 0.0, 0.0, -0.85, -1.6, -1.41, -1.38, -1.43, -1.45, -2.12, -3.69, -6.7, -7.41, -7.02, -5.89, -5.1, -5.1, -5.1, 0.0, 0.0, 0.0, 0.0, 0.0, -1.17, -1.21, -1.33, -1.38, -1.38, -2.81, -2.81, -2.89, -2.89, -2.89, -4.24, -4.24, -4.24, -4.24, -4.37, -3.88, -3.88, -3.88, -3.88, -5.04, -4.52, -4.52, -4.52, -4.38, -4.24, -4.24, -4.1, -4.1, -3.96, -3.96, -3.82, -3.82, -3.68, -3.68, -3.53, -3.68, -3.68, -3.68, -3.68, -3.53, -3.53, -2.82, -3.06, -3.06, -2.94, -2.82, -2.71, -3.36, -3.36, -2.97, -2.83, -2.5, -2.5, -2.37, -2.4, -2.26, -2.96, -3.0, -3.04, -3.76, -3.76, -3.47, -3.04, -1.96, -1.96, -2.67, -3.8, -3.8, -3.99, -4.68, -4.74, -3.81, -2.83, -2.71, -1.92, -1.76, -0.93, -0.81, -0.87, -0.8, -1.41, -2.11, -2.09, -1.44, -1.45, -2.17, -4.22, -6.44, -7.07, -7.15, -6.32, -6.32, -6.32, 0.0, 0.0, 0.0, 0.0, 0.0, -1.17, -1.21, -1.38, -1.38, -2.72, -2.72, -2.81, -2.89, -2.89, -2.89, -4.24, -4.24, -4.24, -4.24, -4.37, -4.37, -3.88, -3.88, -5.04, -4.89, -4.52, -4.52, -4.38, -4.38, -4.24, -4.24, -4.1, -4.1, -3.96, -3.96, -3.82, -3.82, -3.68, -3.68, -3.53, -3.53, -3.68, -3.68, -3.53, -3.53, -3.39, -2.82, -2.82, -2.82, -2.82, -2.82, -2.71, -3.36, -3.36, -3.78, -3.61, -3.21, -3.21, -3.05, -2.73, -2.92, -2.96, -3.21, -3.45, -3.72, -4.42, -4.12, -3.04, -2.82, -1.73, -1.75, -1.84, -1.94, -2.17, -3.14, -3.8, -5.63, -4.78, -3.82, -3.51, -2.71, -2.82, -0.81, 0.0, 0.0, -0.8, -2.35, -3.23, -2.88, -2.76, -2.95, -2.83, -5.24, -7.58, -8.4, -6.91, -6.91, -6.91, 0.0, 0.0, 0.0, 0.0, -1.13, -1.13, -1.29, -1.33, -1.33, -2.63, -2.72, -2.81, -2.81, -2.89, -4.24, -4.24, -4.24, -4.24, -4.24, -4.37, -4.37, -4.37, -4.0, -5.04, -4.89, -4.89, -4.52, -4.38, -4.38, -4.24, -4.1, -4.1, -3.96, -3.96, -3.96, -3.82, -3.82, -3.68, -3.53, -3.53, -3.82, -3.82, -3.82, -3.82, -3.67, -3.67, -2.82, -2.82, -2.71, -2.71, -3.51, -3.51, -3.51, -4.07, -3.78, -3.61, -3.37, -3.21, -3.05, -2.89, -3.6, -3.4, -3.42, -3.45, -3.72, -4.12, -4.42, -3.72, -3.04, -2.67, -1.84, -1.75, -0.94, -0.99, -0.99, -1.94, -3.81, -5.46, -4.6, -4.6, -3.82, -2.6, -1.71, 0.0, 0.0, 0.0, -1.38, -2.82, -4.4, -5.18, -4.31, -3.61, -4.2, -7.33, -8.91, -8.4, -8.4, -8.4, 0.0, 0.0, 0.0, 0.0, -1.17, -1.17, -1.29, -1.29, -2.63, -2.63, -2.72, -2.81, -2.81, -4.24, -4.24, -4.24, -4.24, -4.24, -4.24, -4.24, -4.37, -4.37, -5.64, -5.04, -4.89, -4.89, -4.89, -4.74, -4.24, -4.24, -4.1, -3.96, -3.96, -3.96, -3.82, -3.82, -3.82, -3.68, -3.68, -3.82, -3.82, -3.82, -3.82, -3.82, -3.67, -3.67, -3.67, -3.51, -3.51, -3.51, -3.51, -3.51, -4.25, -4.07, -4.07, -4.4, -3.93, -3.75, -3.75, -3.56, -3.37, -3.4, -4.08, -3.84, -4.1, -4.39, -4.39, -4.39, -3.72, -3.55, -2.67, -2.67, -2.83, -1.95, -2.06, -2.83, -3.81, -4.78, -4.6, -4.6, -3.82, -3.51, -2.51, -1.61, 0.0, 0.0, 0.0, -1.47, -3.69, -6.01, -5.49, -4.56, -4.2, -6.64, -9.11, -9.11, -9.11, -9.11, 0.0, 0.0, 0.0, 0.0, -1.17, -1.29, -1.29, -2.63, -2.63, -2.63, -2.72, -2.72, -2.81, -4.24, -4.24, -4.24, -4.24, -4.24, -4.24, -4.37, -4.37, -5.64, -5.64, -5.04, -4.89, -4.89, -4.74, -4.74, -4.58, -4.43, -4.1, -3.96, -3.96, -3.82, -3.82, -3.82, -3.68, -3.68, -3.97, -3.82, -3.82, -3.82, -3.82, -3.67, -3.67, -3.67, -3.67, -3.51, -3.51, -3.51, -3.51, -3.36, -4.25, -4.07, -4.71, -4.4, -4.2, -3.93, -3.75, -4.03, -4.03, -4.05, -4.05, -4.08, -4.1, -4.1, -4.39, -4.39, -4.39, -4.42, -4.42, -3.77, -2.82, -2.99, -3.6, -3.63, -4.56, -4.56, -4.4, -4.4, -3.82, -3.51, -3.53, -2.62, -1.58, -0.8, 0.0, -0.74, -1.52, -6.01, -7.81, -6.14, -3.49, -5.21, -6.64, -8.4, -8.4, -8.4, 0.0, 0.0, 0.0, -1.13, -1.17, -1.29, -1.29, -2.63, -2.63, -2.63, -2.72, -2.72, -4.11, -4.11, -4.24, -4.11, -4.11, -4.24, -4.24, -4.24, -5.64, -5.64, -5.64, -5.64, -4.89, -4.74, -4.74, -4.74, -4.58, -4.43, -4.43, -4.28, -3.96, -3.82, -3.82, -3.82, -3.82, -3.97, -3.97, -3.82, -3.82, -3.82, -3.67, -3.67, -3.67, -3.67, -3.51, -3.51, -3.51, -3.51, -3.51, -3.36, -4.07, -4.71, -4.71, -4.73, -4.73, -4.45, -4.45, -4.24, -4.03, -4.03, -4.05, -3.83, -4.08, -4.1, -4.1, -4.36, -4.75, -4.1, -3.84, -3.4, -2.82, -1.96, -2.67, -2.69, -3.63, -3.81, -4.56, -4.4, -3.82, -3.39, -3.29, -3.44, -3.17, -2.5, -0.81, 0.0, 0.0, -3.8, -7.81, -8.18, -4.4, -2.39, -2.97, -4.2, -4.2, -4.2, 0.0, 0.0, -1.13, -1.25, -1.25, -1.29, -2.54, -2.54, -2.63, -2.63, -2.72, -3.98, -4.11, -4.11, -4.11, -4.11, -4.11, -4.11, -4.24, -5.48, -5.48, -5.64, -5.64, -5.48, -5.31, -4.74, -4.74, -4.58, -4.58, -4.43, -4.43, -4.28, -4.12, -3.82, -3.82, -3.82, -4.12, -3.97, -3.97, -3.97, -3.82, -3.82, -3.82, -3.67, -3.67, -3.67, -3.51, -3.51, -3.51, -3.51, -3.36, -4.07, -4.07, -4.71, -5.28, -4.73, -4.73, -4.5, -4.45, -4.24, -4.24, -4.71, -4.05, -4.05, -4.08, -4.08, -4.36, -4.36, -5.03, -4.47, -3.84, -3.27, -1.63, 0.0, -0.89, -1.75, -2.69, -3.81, -4.56, -4.4, -4.6, -4.13, -4.01, -4.21, -3.91, -2.5, -1.77, -0.89, 0.0, -1.22, -5.21, -7.81, -6.95, -3.49, -3.49, -4.0, -4.0, -4.0, -1.25, -1.25, -1.29, -1.29, -1.29, -1.29, -2.54, -2.54, -2.54, -2.63, -3.85, -3.98, -4.11, -4.11, -4.11, -4.11, -4.11, -5.31, -5.31, -5.48, -5.48, -5.48, -5.48, -5.48, -5.31, -5.15, -5.15, -4.58, -4.58, -4.43, -4.43, -4.28, -4.12, -4.12, -4.12, -4.81, -4.81, -3.97, -3.97, -3.82, -3.82, -4.15, -4.15, -3.98, -3.67, -3.67, -3.67, -3.51, -3.82, -3.82, -4.4, -4.07, -4.71, -5.28, -5.04, -5.04, -4.73, -4.5, -4.5, -4.5, -4.5, -4.28, -4.28, -4.05, -4.08, -4.08, -4.08, -4.32, -4.61, -4.36, -3.84, -2.77, -1.67, 0.0, 0.0, -0.94, -1.84, -3.49, -4.2, -4.4, -4.92, -4.8, -5.0, -4.75, -3.87, -2.64, -1.83, -0.93, -0.93, -1.09, -4.83, -8.8, -8.72, -6.32, -4.6, -4.0, -4.0, -4.0, -1.25, -1.25, -1.29, -1.29, -1.29, -1.29, -2.54, -2.54, -2.54, -2.63, -3.85, -3.98, -4.11, -4.11, -4.11, -4.11, -4.11, -5.31, -5.31, -5.48, -5.48, -5.48, -5.48, -5.48, -5.31, -5.15, -5.15, -4.58, -4.58, -4.43, -4.43, -4.28, -4.12, -4.12, -4.12, -4.81, -4.81, -3.97, -3.97, -3.82, -3.82, -4.15, -4.15, -3.98, -3.67, -3.67, -3.67, -3.51, -3.82, -3.82, -4.4, -4.07, -4.71, -5.28, -5.04, -5.04, -4.73, -4.5, -4.5, -4.5, -4.5, -4.28, -4.28, -4.05, -4.08, -4.08, -4.08, -4.32, -4.61, -4.36, -3.84, -2.77, -1.67, 0.0, 0.0, -0.94, -2.83, -3.49, -4.2, -4.4, -4.92, -5.14, -5.0, -4.87, -4.06, -3.34, -1.77, -1.9, -0.97, -2.0, -4.05, -7.51, -9.21, -8.4, -7.51, -6.64, -6.64, -6.64]}]